DAL200 KATL-FAOR

Flight info

Callsign DAL200
Flight time N/A
Altitude 33000
Route GAIRY2 IRQ DCT DEDDY Y436 JAINS/M086F330 L435 BUTUX/N0507F350 UL435 PINRU/N0494F370 UL435 BUVUK DCT 00N020W 07S010W/N0488F390 11S005W 14S000E 16S005E DCT GUBAG DCT IBNEV UL435 TIMAB/N0480F410 UL435 ETOSA UZ10 PEDIL UQ19 AVAGO AVAGO1D
Aircraft A359/H-SDE2E3GHIJ1J3J4J5LM1ORWXY/LB1D1

Departure

Time 2026-05-07 18:49
Airport Hartsfield Jackson Atlanta International Airport (KATL)

Arrival

Time N/A
Airport O.R. Tambo International Airport (FAOR)
Time Latitude Longitude Altitude Speed Heading
2026-05-07 18:26 33.63988 -84.42046 1041 ft 0 kts 90°
2026-05-07 18:39 33.63988 -84.42074 1041 ft 4 kts 89°
2026-05-07 18:39 33.63988 -84.42107 1041 ft 4 kts 98°
2026-05-07 18:39 33.63995 -84.42137 1044 ft 4 kts 122°
2026-05-07 18:40 33.64012 -84.42158 1043 ft 4 kts 162°
2026-05-07 18:40 33.64023 -84.42161 1042 ft 0 kts 179°
2026-05-07 18:43 33.64013 -84.42161 1043 ft 4 kts 178°
2026-05-07 18:43 33.63962 -84.42159 1041 ft 11 kts 180°
2026-05-07 18:43 33.63868 -84.42160 1041 ft 15 kts 180°
2026-05-07 18:44 33.63764 -84.42161 1042 ft 15 kts 180°
2026-05-07 18:44 33.63672 -84.42137 1042 ft 13 kts 129°
2026-05-07 18:44 33.63657 -84.42037 1042 ft 12 kts 90°
2026-05-07 18:44 33.63657 -84.41933 1041 ft 13 kts 90°
2026-05-07 18:45 33.63657 -84.41828 1041 ft 13 kts 90°
2026-05-07 18:45 33.63656 -84.41724 1041 ft 12 kts 90°
2026-05-07 18:45 33.63656 -84.41617 1041 ft 15 kts 90°
2026-05-07 18:45 33.63656 -84.41474 1041 ft 19 kts 90°
2026-05-07 18:46 33.63657 -84.41320 1041 ft 18 kts 90°
2026-05-07 18:46 33.63657 -84.41169 1041 ft 18 kts 90°
2026-05-07 18:46 33.63658 -84.41023 1041 ft 17 kts 90°
2026-05-07 18:46 33.63658 -84.40881 1041 ft 17 kts 90°
2026-05-07 18:47 33.63640 -84.40766 1042 ft 12 kts 130°
2026-05-07 18:47 33.63567 -84.40748 1042 ft 9 kts 179°
2026-05-07 18:47 33.63503 -84.40747 1042 ft 8 kts 183°
2026-05-07 18:47 33.63475 -84.40789 1042 ft 6 kts 255°
2026-05-07 18:48 33.63474 -84.40809 1042 ft 0 kts 269°
2026-05-07 18:48 33.63473 -84.40835 1042 ft 15 kts 269°
2026-05-07 18:48 33.63473 -84.41170 1040 ft 64 kts 271°
2026-05-07 18:49 33.63472 -84.41885 1042 ft 106 kts 270°
2026-05-07 18:49 33.63472 -84.42927 1042 ft 143 kts 270°
2026-05-07 18:49 33.63472 -84.44207 1268 ft 153 kts 274°
2026-05-07 18:49 33.63454 -84.45463 1681 ft 151 kts 274°
2026-05-07 18:50 33.63329 -84.46733 2012 ft 154 kts 264°
2026-05-07 18:50 33.63069 -84.48016 2206 ft 165 kts 258°
2026-05-07 18:50 33.62667 -84.49347 2337 ft 179 kts 251°
2026-05-07 18:50 33.62110 -84.50749 2438 ft 195 kts 247°
2026-05-07 18:51 33.61477 -84.52234 2571 ft 210 kts 246°
2026-05-07 18:51 33.60780 -84.53856 2743 ft 227 kts 246°
2026-05-07 18:51 33.60038 -84.55598 2951 ft 242 kts 246°
2026-05-07 18:51 33.59091 -84.57316 3353 ft 253 kts 229°
2026-05-07 18:52 33.57558 -84.58384 3779 ft 264 kts 195°
2026-05-07 18:52 33.55690 -84.58561 4266 ft 269 kts 185°
2026-05-07 18:52 33.53798 -84.58535 4746 ft 272 kts 183°
2026-05-07 18:52 33.51910 -84.58498 5249 ft 272 kts 184°
2026-05-07 18:53 33.50043 -84.58465 5778 ft 272 kts 185°
2026-05-07 18:53 33.48137 -84.58056 6164 ft 289 kts 162°
2026-05-07 18:53 33.46507 -84.56601 6663 ft 302 kts 131°
2026-05-07 18:53 33.45647 -84.54283 7045 ft 313 kts 99°
2026-05-07 18:54 33.45543 -84.51664 7493 ft 317 kts 89°
2026-05-07 18:54 33.45579 -84.49003 7940 ft 322 kts 89°
2026-05-07 18:54 33.45607 -84.46307 8405 ft 326 kts 89°
2026-05-07 18:54 33.45616 -84.43582 8909 ft 328 kts 90°
2026-05-07 18:55 33.45613 -84.40830 9368 ft 332 kts 90°
2026-05-07 18:55 33.45603 -84.38052 9804 ft 336 kts 90°
2026-05-07 18:55 33.45590 -84.35235 10201 ft 343 kts 90°
2026-05-07 18:55 33.45680 -84.32329 10369 ft 356 kts 84°
2026-05-07 18:56 33.45909 -84.29324 10546 ft 369 kts 83°
2026-05-07 18:56 33.46165 -84.26215 10723 ft 382 kts 83°
2026-05-07 18:56 33.46429 -84.22985 10901 ft 395 kts 83°
2026-05-07 18:56 33.46697 -84.19660 11057 ft 407 kts 83°
2026-05-07 18:57 33.46970 -84.16238 11226 ft 418 kts 83°
2026-05-07 18:57 33.47249 -84.12721 11376 ft 429 kts 83°
2026-05-07 18:57 33.47532 -84.09122 11517 ft 439 kts 83°
2026-05-07 18:57 33.47818 -84.05473 11698 ft 446 kts 83°
2026-05-07 18:58 33.48107 -84.01752 12028 ft 450 kts 83°
2026-05-07 18:58 33.48397 -83.98012 12378 ft 453 kts 83°
2026-05-07 18:58 33.48689 -83.94238 12704 ft 457 kts 83°
2026-05-07 18:58 33.48982 -83.90435 13040 ft 460 kts 83°
2026-05-07 18:59 33.49276 -83.86604 13373 ft 464 kts 83°
2026-05-07 18:59 33.49571 -83.82743 13692 ft 467 kts 83°
2026-05-07 18:59 33.49866 -83.78856 13984 ft 470 kts 83°
2026-05-07 18:59 33.50162 -83.74945 14242 ft 474 kts 83°
2026-05-07 19:00 33.50460 -83.70988 14513 ft 477 kts 83°
2026-05-07 19:00 33.50759 -83.67010 14804 ft 481 kts 83°
2026-05-07 19:00 33.51059 -83.63010 15074 ft 484 kts 83°
2026-05-07 19:00 33.51530 -83.59012 15350 ft 486 kts 78°
2026-05-07 19:01 33.52130 -83.55016 15631 ft 489 kts 77°
2026-05-07 19:01 33.52733 -83.50987 15927 ft 492 kts 78°
2026-05-07 19:01 33.53320 -83.46938 16177 ft 495 kts 78°
2026-05-07 19:01 33.53899 -83.42859 16443 ft 498 kts 78°
2026-05-07 19:02 33.54474 -83.38752 16709 ft 501 kts 79°
2026-05-07 19:02 33.55041 -83.34665 16941 ft 505 kts 79°
2026-05-07 19:02 33.55622 -83.30449 17210 ft 508 kts 79°
2026-05-07 19:02 33.56189 -83.26316 17484 ft 511 kts 79°
2026-05-07 19:03 33.56774 -83.22041 17757 ft 514 kts 79°
2026-05-07 19:03 33.57345 -83.17854 17999 ft 518 kts 79°
2026-05-07 19:03 33.57926 -83.13583 18253 ft 520 kts 79°
2026-05-07 19:03 33.58507 -83.09291 18496 ft 522 kts 79°
2026-05-07 19:04 33.59089 -83.04983 18751 ft 524 kts 79°
2026-05-07 19:04 33.59671 -83.00670 19005 ft 525 kts 79°
2026-05-07 19:04 33.60252 -82.96343 19248 ft 526 kts 79°
2026-05-07 19:04 33.60834 -82.92003 19490 ft 528 kts 79°
2026-05-07 19:05 33.61417 -82.87643 19736 ft 530 kts 80°
2026-05-07 19:05 33.61999 -82.83279 19968 ft 531 kts 80°
2026-05-07 19:05 33.62582 -82.78895 20232 ft 533 kts 80°
2026-05-07 19:05 33.63166 -82.74495 20503 ft 534 kts 80°
2026-05-07 19:06 33.63747 -82.70096 20806 ft 535 kts 80°
2026-05-07 19:06 33.64913 -82.61247 21318 ft 538 kts 80°
2026-05-07 19:06 33.65496 -82.56802 21568 ft 540 kts 80°
2026-05-07 19:07 33.66078 -82.52345 21833 ft 541 kts 80°
2026-05-07 19:07 33.66660 -82.47880 22021 ft 543 kts 80°
2026-05-07 19:07 33.67243 -82.43391 22241 ft 545 kts 80°
2026-05-07 19:07 33.67827 -82.38889 22478 ft 546 kts 80°
2026-05-07 19:08 33.68409 -82.34387 22797 ft 546 kts 81°
2026-05-07 19:08 33.68990 -82.29875 23075 ft 547 kts 81°
2026-05-07 19:08 33.69571 -82.25351 23318 ft 549 kts 81°
2026-05-07 19:08 33.70022 -82.20784 23523 ft 552 kts 88°
2026-05-07 19:09 33.69878 -82.16189 23686 ft 551 kts 101°
2026-05-07 19:09 33.68997 -82.11739 23858 ft 546 kts 114°
2026-05-07 19:09 33.67646 -82.07489 24054 ft 545 kts 117°
2026-05-07 19:09 33.66141 -82.03315 24252 ft 545 kts 119°
2026-05-07 19:10 33.64564 -81.99173 24471 ft 546 kts 120°
2026-05-07 19:10 33.62963 -81.95036 24687 ft 547 kts 120°
2026-05-07 19:10 33.61362 -81.90885 24929 ft 549 kts 120°
2026-05-07 19:10 33.59768 -81.86713 25139 ft 551 kts 120°
2026-05-07 19:11 33.58199 -81.82573 25374 ft 553 kts 120°
2026-05-07 19:11 33.56613 -81.78363 25606 ft 555 kts 120°
2026-05-07 19:11 33.55024 -81.74131 25846 ft 557 kts 120°
2026-05-07 19:11 33.53432 -81.69889 26090 ft 559 kts 120°
2026-05-07 19:12 33.51833 -81.65634 26311 ft 561 kts 120°
2026-05-07 19:12 33.50230 -81.61371 26585 ft 561 kts 119°
2026-05-07 19:12 33.48622 -81.57102 26843 ft 563 kts 119°
2026-05-07 19:12 33.47009 -81.52826 27115 ft 565 kts 119°
2026-05-07 19:13 33.45387 -81.48535 27368 ft 567 kts 120°
2026-05-07 19:13 33.43757 -81.44230 27557 ft 569 kts 120°
2026-05-07 19:13 33.42119 -81.39910 27777 ft 571 kts 120°
2026-05-07 19:13 33.40474 -81.35578 27983 ft 572 kts 120°
2026-05-07 19:14 33.38823 -81.31234 28189 ft 574 kts 120°
2026-05-07 19:14 33.37166 -81.26881 28376 ft 575 kts 119°
2026-05-07 19:14 33.35523 -81.22540 28783 ft 572 kts 118°
2026-05-07 19:14 33.33875 -81.18211 28974 ft 573 kts 119°
2026-05-07 19:15 33.32214 -81.13866 29129 ft 575 kts 119°
2026-05-07 19:15 33.30546 -81.09516 29328 ft 576 kts 119°
2026-05-07 19:15 33.28879 -81.05170 29610 ft 575 kts 119°
2026-05-07 19:15 33.27214 -81.00832 29882 ft 574 kts 119°
2026-05-07 19:16 33.25551 -80.96504 30104 ft 573 kts 119°
2026-05-07 19:16 33.23886 -80.92176 30293 ft 573 kts 119°
2026-05-07 19:16 33.22222 -80.87853 30546 ft 571 kts 119°
2026-05-07 19:16 33.20573 -80.83571 30920 ft 566 kts 119°
2026-05-07 19:17 33.18927 -80.79303 31122 ft 565 kts 119°
2026-05-07 19:17 33.17278 -80.75037 31258 ft 566 kts 120°
2026-05-07 19:17 33.15630 -80.70780 31416 ft 566 kts 120°
2026-05-07 19:17 33.13977 -80.66517 31615 ft 565 kts 120°
2026-05-07 19:18 33.12328 -80.62266 31827 ft 565 kts 120°
2026-05-07 19:18 33.11235 -80.59452 31954 ft 564 kts 120°
2026-05-07 19:18 33.09587 -80.55213 32149 ft 564 kts 120°
2026-05-07 19:18 33.07937 -80.50973 32355 ft 562 kts 120°
2026-05-07 19:19 33.06294 -80.46756 32597 ft 560 kts 120°
2026-05-07 19:19 33.04652 -80.42544 32789 ft 560 kts 120°
2026-05-07 19:19 33.01359 -80.34124 32896 ft 563 kts 120°
2026-05-07 19:20 32.98030 -80.25638 32908 ft 566 kts 120°
2026-05-07 19:20 32.94695 -80.17143 32920 ft 566 kts 120°
2026-05-07 19:21 32.91355 -80.08661 32921 ft 566 kts 120°
2026-05-07 19:21 32.88044 -80.00157 32925 ft 567 kts 117°
2026-05-07 19:22 32.85116 -79.91491 32921 ft 569 kts 115°
2026-05-07 19:22 32.82267 -79.82710 32906 ft 569 kts 115°
2026-05-07 19:23 32.79362 -79.73967 32905 ft 568 kts 116°
2026-05-07 19:23 32.76413 -79.65264 32900 ft 568 kts 116°
2026-05-07 19:24 32.73446 -79.56571 32900 ft 568 kts 116°
2026-05-07 19:24 32.70612 -79.47813 32898 ft 568 kts 113°
2026-05-07 19:25 32.67895 -79.39069 32904 ft 562 kts 114°
2026-05-07 19:25 32.65180 -79.30397 32910 ft 560 kts 114°
2026-05-07 19:26 32.62437 -79.21745 32912 ft 560 kts 114°
2026-05-07 19:26 32.59680 -79.13103 32912 ft 560 kts 114°
2026-05-07 19:27 32.56917 -79.04469 32922 ft 560 kts 114°
2026-05-07 19:27 32.54149 -78.95839 32925 ft 560 kts 114°
2026-05-07 19:28 32.51374 -78.87209 32919 ft 560 kts 114°
2026-05-07 19:28 32.48595 -78.78587 32923 ft 560 kts 114°
2026-05-07 19:29 32.45809 -78.69970 32914 ft 560 kts 114°
2026-05-07 19:29 32.43018 -78.61361 32926 ft 560 kts 114°
2026-05-07 19:30 32.40240 -78.52816 32926 ft 560 kts 114°
2026-05-07 19:30 32.37439 -78.44223 32925 ft 560 kts 114°
2026-05-07 19:31 32.34633 -78.35637 32908 ft 560 kts 114°
2026-05-07 19:31 32.31827 -78.27066 32926 ft 558 kts 114°
2026-05-07 19:32 32.29023 -78.18516 32928 ft 558 kts 114°
2026-05-07 19:32 32.26214 -78.09975 32930 ft 558 kts 114°
2026-05-07 19:33 32.23395 -78.01442 32933 ft 558 kts 114°
2026-05-07 19:33 32.20529 -77.92942 32926 ft 556 kts 118°
2026-05-07 19:34 32.16307 -77.85463 32934 ft 542 kts 139°
2026-05-07 19:34 32.10901 -77.79305 32938 ft 540 kts 143°
2026-05-07 19:35 32.05310 -77.73408 32938 ft 539 kts 143°
2026-05-07 19:35 31.99707 -77.67531 32943 ft 540 kts 143°
2026-05-07 19:36 31.94105 -77.61614 32943 ft 542 kts 143°
2026-05-07 19:36 31.88503 -77.55675 32949 ft 542 kts 142°
2026-05-07 19:37 31.82903 -77.49742 32952 ft 542 kts 143°
2026-05-07 19:37 31.77299 -77.43816 32958 ft 542 kts 143°
2026-05-07 19:38 31.71692 -77.37900 32929 ft 542 kts 143°
2026-05-07 19:38 31.66075 -77.31986 32955 ft 543 kts 143°
2026-05-07 19:39 31.60442 -77.26064 32960 ft 544 kts 143°
2026-05-07 19:39 31.54810 -77.20150 32961 ft 544 kts 143°
2026-05-07 19:40 31.49174 -77.14242 32966 ft 543 kts 143°
2026-05-07 19:40 31.43539 -77.08346 32968 ft 543 kts 143°
2026-05-07 19:41 31.38089 -77.02199 32971 ft 549 kts 133°
2026-05-07 19:41 31.35890 -76.98528 32976 ft 554 kts 122°
2026-05-07 19:41 31.34292 -76.94489 32974 ft 557 kts 111°
2026-05-07 19:42 31.31960 -76.85826 32966 ft 560 kts 107°
2026-05-07 19:42 31.29891 -76.77052 32980 ft 559 kts 106°
2026-05-07 19:43 31.27816 -76.68285 32981 ft 559 kts 107°
2026-05-07 19:43 31.25691 -76.59539 32987 ft 559 kts 107°
2026-05-07 19:44 31.23542 -76.50814 32984 ft 559 kts 107°
2026-05-07 19:44 31.21385 -76.42094 32983 ft 558 kts 107°
2026-05-07 19:45 31.19228 -76.33394 32981 ft 557 kts 107°
2026-05-07 19:45 31.17067 -76.24703 32983 ft 557 kts 107°
2026-05-07 19:46 31.14901 -76.16013 32981 ft 557 kts 107°
2026-05-07 19:46 31.12730 -76.07334 32986 ft 557 kts 107°
2026-05-07 19:47 31.10555 -75.98669 32983 ft 556 kts 107°
2026-05-07 19:47 31.08375 -75.90008 32981 ft 556 kts 108°
2026-05-07 19:48 31.06190 -75.81353 32989 ft 556 kts 108°
2026-05-07 19:48 31.04000 -75.72706 32984 ft 556 kts 108°
2026-05-07 19:49 31.01805 -75.64064 32984 ft 556 kts 108°
2026-05-07 19:49 30.99620 -75.55489 32989 ft 556 kts 108°
2026-05-07 19:50 30.97413 -75.46857 32996 ft 556 kts 108°
2026-05-07 19:50 30.95201 -75.38231 32993 ft 555 kts 107°
2026-05-07 19:51 30.92990 -75.29629 32993 ft 554 kts 108°
2026-05-07 19:51 30.90771 -75.21029 32994 ft 554 kts 108°
2026-05-07 19:52 30.88547 -75.12432 32993 ft 554 kts 108°
2026-05-07 19:52 30.86318 -75.03845 32996 ft 554 kts 108°
2026-05-07 19:53 30.84083 -74.95259 32999 ft 554 kts 108°
2026-05-07 19:53 30.81842 -74.86676 32999 ft 554 kts 108°
2026-05-07 19:54 30.79596 -74.78097 33001 ft 554 kts 108°
2026-05-07 19:54 30.77343 -74.69520 33000 ft 554 kts 108°
2026-05-07 19:55 30.75086 -74.60951 33007 ft 554 kts 108°
2026-05-07 19:55 30.72822 -74.52384 33006 ft 554 kts 108°
2026-05-07 19:56 30.70553 -74.43821 33007 ft 554 kts 108°
2026-05-07 19:56 30.68278 -74.35260 33010 ft 554 kts 108°
2026-05-07 19:57 30.66013 -74.26762 33013 ft 555 kts 108°
2026-05-07 19:57 30.63726 -74.18207 33014 ft 555 kts 108°
2026-05-07 19:58 30.61433 -74.09654 33015 ft 555 kts 108°
2026-05-07 19:58 30.59134 -74.01105 33019 ft 555 kts 108°
2026-05-07 19:59 30.56830 -73.92560 33021 ft 554 kts 108°
2026-05-07 19:59 30.54523 -73.84031 33021 ft 554 kts 108°
2026-05-07 20:00 30.52211 -73.75511 33024 ft 554 kts 108°
2026-05-07 20:00 30.49892 -73.66990 33022 ft 554 kts 108°
2026-05-07 20:01 30.47568 -73.58473 33019 ft 553 kts 108°
2026-05-07 20:01 30.45245 -73.49987 33025 ft 552 kts 108°
2026-05-07 20:02 30.42921 -73.41518 33031 ft 551 kts 108°
2026-05-07 20:02 30.40594 -73.33065 33030 ft 551 kts 108°
2026-05-07 20:03 30.38262 -73.24614 33029 ft 550 kts 108°
2026-05-07 20:03 30.35929 -73.16185 33031 ft 550 kts 108°
2026-05-07 20:04 30.33607 -73.07817 33030 ft 550 kts 108°
2026-05-07 20:04 30.31262 -72.99392 33029 ft 550 kts 108°
2026-05-07 20:05 30.28913 -72.90977 33039 ft 550 kts 108°
2026-05-07 20:05 30.26560 -72.82566 33038 ft 550 kts 108°
2026-05-07 20:06 30.24200 -72.74157 33048 ft 550 kts 108°
2026-05-07 20:06 30.21835 -72.65753 33040 ft 550 kts 108°
2026-05-07 20:07 30.19464 -72.57351 33041 ft 549 kts 108°
2026-05-07 20:07 30.17092 -72.48968 33039 ft 549 kts 108°
2026-05-07 20:08 30.15098 -72.42015 33045 ft 548 kts 110°
2026-05-07 20:08 30.12329 -72.33809 33043 ft 548 kts 112°
2026-05-07 20:09 30.09419 -72.25667 33044 ft 548 kts 112°
2026-05-07 20:10 30.05133 -72.13423 33048 ft 548 kts 112°
2026-05-07 20:10 30.02310 -72.05248 33050 ft 548 kts 111°
2026-05-07 20:11 29.99485 -71.97074 33053 ft 548 kts 112°
2026-05-07 20:11 29.96653 -71.88904 33043 ft 548 kts 111°
2026-05-07 20:12 29.93817 -71.80747 33054 ft 548 kts 111°
2026-05-07 20:12 29.90978 -71.72602 33056 ft 548 kts 111°
2026-05-07 20:13 29.88132 -71.64457 33058 ft 548 kts 111°
2026-05-07 20:13 29.85283 -71.56319 33066 ft 548 kts 111°
2026-05-07 20:14 29.82428 -71.48185 33064 ft 548 kts 111°
2026-05-07 20:14 29.79569 -71.40060 33061 ft 548 kts 111°
2026-05-07 20:15 29.76704 -71.31933 33061 ft 548 kts 111°
2026-05-07 20:15 29.73854 -71.23870 33061 ft 548 kts 111°
2026-05-07 20:16 29.70960 -71.15700 33062 ft 548 kts 111°
2026-05-07 20:16 29.68099 -71.07641 33068 ft 548 kts 111°
2026-05-07 20:17 29.65215 -70.99538 33073 ft 548 kts 111°
2026-05-07 20:17 29.62325 -70.91435 33072 ft 548 kts 111°
2026-05-07 20:18 29.59432 -70.83342 33073 ft 547 kts 111°
2026-05-07 20:18 29.56539 -70.75268 33072 ft 546 kts 111°
2026-05-07 20:19 29.53642 -70.67201 33073 ft 546 kts 111°
2026-05-07 20:19 29.50739 -70.59135 33076 ft 546 kts 111°
2026-05-07 20:20 29.47835 -70.51083 33070 ft 545 kts 111°
2026-05-07 20:20 29.44937 -70.43067 33081 ft 543 kts 111°
2026-05-07 20:21 29.42039 -70.35070 33078 ft 543 kts 111°
2026-05-07 20:21 29.39139 -70.27084 33078 ft 543 kts 111°
2026-05-07 20:22 29.36234 -70.19101 33085 ft 543 kts 111°
2026-05-07 20:22 29.33329 -70.11137 33083 ft 541 kts 112°
2026-05-07 20:23 29.30425 -70.03192 33081 ft 540 kts 112°
2026-05-07 20:23 29.27518 -69.95257 33083 ft 540 kts 112°
2026-05-07 20:24 29.24606 -69.87325 33087 ft 540 kts 112°
2026-05-07 20:24 29.21691 -69.79402 33086 ft 539 kts 112°
2026-05-07 20:25 29.18779 -69.71505 33086 ft 538 kts 112°
2026-05-07 20:25 29.15862 -69.63611 33088 ft 538 kts 112°
2026-05-07 20:26 29.12941 -69.55722 33090 ft 539 kts 112°
2026-05-07 20:26 29.10016 -69.47842 33088 ft 538 kts 112°
2026-05-07 20:27 29.07111 -69.40031 33089 ft 537 kts 112°
2026-05-07 20:27 29.04184 -69.32178 33088 ft 537 kts 112°
2026-05-07 20:28 29.01251 -69.24325 33088 ft 537 kts 112°
2026-05-07 20:28 28.98315 -69.16481 33088 ft 537 kts 112°
2026-05-07 20:29 28.95376 -69.08645 33092 ft 536 kts 112°
2026-05-07 20:29 28.92434 -69.00818 33091 ft 536 kts 113°
2026-05-07 20:30 28.89486 -68.92994 33092 ft 536 kts 113°
2026-05-07 20:30 28.86535 -68.85175 33101 ft 537 kts 113°
2026-05-07 20:31 28.83581 -68.77366 33096 ft 536 kts 113°
2026-05-07 20:31 28.80630 -68.69565 33094 ft 536 kts 112°
2026-05-07 20:32 28.77696 -68.61757 33094 ft 536 kts 112°
2026-05-07 20:32 28.74762 -68.53952 33097 ft 536 kts 112°
2026-05-07 20:33 28.71819 -68.46154 33097 ft 535 kts 112°
2026-05-07 20:33 28.68893 -68.38418 33097 ft 535 kts 112°
2026-05-07 20:34 28.65940 -68.30631 33098 ft 535 kts 112°
2026-05-07 20:34 28.62984 -68.22853 33097 ft 535 kts 113°
2026-05-07 20:35 28.60023 -68.15075 33097 ft 535 kts 112°
2026-05-07 20:35 28.57057 -68.07300 33097 ft 536 kts 113°
2026-05-07 20:36 28.54086 -67.99530 33089 ft 536 kts 113°
2026-05-07 20:36 28.51109 -67.91759 33097 ft 536 kts 113°
2026-05-07 20:37 28.48130 -67.83997 33096 ft 536 kts 113°
2026-05-07 20:37 28.45144 -67.76236 33098 ft 536 kts 113°
2026-05-07 20:38 28.42157 -67.68485 33097 ft 536 kts 113°
2026-05-07 20:38 28.39161 -67.60730 33099 ft 536 kts 113°
2026-05-07 20:39 28.36165 -67.52988 33106 ft 536 kts 113°
2026-05-07 20:39 28.33144 -67.45252 33099 ft 536 kts 113°
2026-05-07 20:40 28.30117 -67.37582 33099 ft 536 kts 113°
2026-05-07 20:40 28.27064 -67.29858 33099 ft 536 kts 113°
2026-05-07 20:41 28.24013 -67.22140 33099 ft 536 kts 113°
2026-05-07 20:41 28.20957 -67.14422 33097 ft 536 kts 113°
2026-05-07 20:42 28.17900 -67.06716 33095 ft 536 kts 113°
2026-05-07 20:42 28.14838 -66.99011 33100 ft 536 kts 113°
2026-05-07 20:43 28.11772 -66.91312 33099 ft 536 kts 113°
2026-05-07 20:43 28.08701 -66.83619 33099 ft 536 kts 113°
2026-05-07 20:44 28.05629 -66.75935 33100 ft 536 kts 113°
2026-05-07 20:44 28.02554 -66.68258 33100 ft 535 kts 113°
2026-05-07 20:45 27.99477 -66.60594 33099 ft 535 kts 113°
2026-05-07 20:45 27.96396 -66.52934 33100 ft 535 kts 112°
2026-05-07 20:46 27.93313 -66.45284 33099 ft 534 kts 112°
2026-05-07 20:46 27.90229 -66.37647 33099 ft 534 kts 112°
2026-05-07 20:47 27.87137 -66.30004 33099 ft 534 kts 112°
2026-05-07 20:47 27.84056 -66.22404 33096 ft 534 kts 112°
2026-05-07 20:48 27.80961 -66.14783 33104 ft 533 kts 112°
2026-05-07 20:48 27.77866 -66.07176 33103 ft 533 kts 112°
2026-05-07 20:49 27.74761 -65.99558 33096 ft 533 kts 112°
2026-05-07 20:49 27.71672 -65.91997 33103 ft 533 kts 112°
2026-05-07 20:50 27.68563 -65.84400 33100 ft 533 kts 112°
2026-05-07 20:50 27.65449 -65.76803 33099 ft 533 kts 112°
2026-05-07 20:51 27.62327 -65.69204 33101 ft 533 kts 112°
2026-05-07 20:51 27.59202 -65.61610 33098 ft 533 kts 112°
2026-05-07 20:52 27.56074 -65.54025 33102 ft 533 kts 112°
2026-05-07 20:52 27.52971 -65.46518 33096 ft 530 kts 111°
2026-05-07 20:53 27.49853 -65.38984 33097 ft 529 kts 111°
2026-05-07 20:53 27.46742 -65.31480 33097 ft 529 kts 111°
2026-05-07 20:54 27.43624 -65.23976 33097 ft 528 kts 111°
2026-05-07 20:54 27.40525 -65.16528 33100 ft 528 kts 111°
2026-05-07 20:55 27.37402 -65.09037 33096 ft 528 kts 111°
2026-05-07 20:55 27.34273 -65.01548 33094 ft 528 kts 111°
2026-05-07 20:56 27.31143 -64.94069 33095 ft 528 kts 111°
2026-05-07 20:56 27.28545 -64.87851 33093 ft 529 kts 111°
2026-05-07 20:57 27.25417 -64.80369 33095 ft 529 kts 111°
2026-05-07 20:57 27.21776 -64.71679 33095 ft 529 kts 111°
2026-05-07 20:58 27.19147 -64.65421 33095 ft 529 kts 111°
2026-05-07 20:58 27.16003 -64.57946 33093 ft 529 kts 111°
2026-05-07 20:59 27.12876 -64.50528 33092 ft 529 kts 111°
2026-05-07 20:59 27.09725 -64.43065 33094 ft 529 kts 111°
2026-05-07 21:00 27.06570 -64.35606 33100 ft 529 kts 111°
2026-05-07 21:00 27.03412 -64.28156 33098 ft 527 kts 111°
2026-05-07 21:01 27.00262 -64.20737 33093 ft 526 kts 111°
2026-05-07 21:01 26.97107 -64.13318 33092 ft 526 kts 111°
2026-05-07 21:02 26.93953 -64.05912 33097 ft 526 kts 111°
2026-05-07 21:02 26.90811 -63.98551 33098 ft 527 kts 110°
2026-05-07 21:03 26.87644 -63.91145 33095 ft 527 kts 110°
2026-05-07 21:03 26.84473 -63.83741 33093 ft 527 kts 110°
2026-05-07 21:04 26.81296 -63.76338 33098 ft 527 kts 111°
2026-05-07 21:04 26.78038 -63.68977 33096 ft 528 kts 112°
2026-05-07 21:05 26.74627 -63.61699 33089 ft 528 kts 112°
2026-05-07 21:05 26.71234 -63.54477 33089 ft 528 kts 112°
2026-05-07 21:06 26.67835 -63.47190 33093 ft 528 kts 112°
2026-05-07 21:06 26.64446 -63.39903 33091 ft 527 kts 112°
2026-05-07 21:07 26.61059 -63.32629 33089 ft 526 kts 112°
2026-05-07 21:07 26.57673 -63.25369 33088 ft 526 kts 112°
2026-05-07 21:08 26.54304 -63.18160 33085 ft 526 kts 111°
2026-05-07 21:08 26.50915 -63.10924 33092 ft 525 kts 111°
2026-05-07 21:09 26.47538 -63.03727 33090 ft 522 kts 111°
2026-05-07 21:09 26.44170 -62.96556 33086 ft 521 kts 111°
2026-05-07 21:10 26.40797 -62.89383 33085 ft 522 kts 111°
2026-05-07 21:10 26.37423 -62.82224 33103 ft 522 kts 111°
2026-05-07 21:11 26.34068 -62.75120 33087 ft 519 kts 111°
2026-05-07 21:11 26.29024 -62.64457 33083 ft 518 kts 111°
2026-05-07 21:12 26.25658 -62.57353 33085 ft 518 kts 111°
2026-05-07 21:12 26.22292 -62.50262 33090 ft 518 kts 111°
2026-05-07 21:13 26.18928 -62.43191 33084 ft 516 kts 111°
2026-05-07 21:13 26.15569 -62.36136 33083 ft 516 kts 111°
2026-05-07 21:14 26.12209 -62.29091 33086 ft 516 kts 111°
2026-05-07 21:14 26.08842 -62.22044 33099 ft 516 kts 111°
2026-05-07 21:15 26.05477 -62.15015 33085 ft 514 kts 111°
2026-05-07 21:15 26.02116 -62.08004 33085 ft 513 kts 111°
2026-05-07 21:16 25.98774 -62.01040 33081 ft 513 kts 111°
2026-05-07 21:16 25.95409 -61.94041 33080 ft 513 kts 111°
2026-05-07 21:17 25.92037 -61.87040 33086 ft 513 kts 111°
2026-05-07 21:17 25.88668 -61.80055 33086 ft 513 kts 111°
2026-05-07 21:18 25.85294 -61.73071 33082 ft 513 kts 111°
2026-05-07 21:18 25.81936 -61.66132 33084 ft 513 kts 111°
2026-05-07 21:19 25.78560 -61.59166 33086 ft 513 kts 111°
2026-05-07 21:19 25.75178 -61.52198 33086 ft 513 kts 112°
2026-05-07 21:20 25.71789 -61.45225 33082 ft 513 kts 112°
2026-05-07 21:20 25.68401 -61.38268 33083 ft 513 kts 112°
2026-05-07 21:21 25.65009 -61.31310 33089 ft 513 kts 112°
2026-05-07 21:21 25.61635 -61.24402 33086 ft 513 kts 112°
2026-05-07 21:22 25.58239 -61.17459 33085 ft 513 kts 112°
2026-05-07 21:22 25.54840 -61.10521 33086 ft 512 kts 112°
2026-05-07 21:23 25.51436 -61.03583 33100 ft 512 kts 112°
2026-05-07 21:23 25.48034 -60.96659 33085 ft 512 kts 112°
2026-05-07 21:24 25.44626 -60.89734 33085 ft 512 kts 112°
2026-05-07 21:24 25.41240 -60.82862 33088 ft 512 kts 112°
2026-05-07 21:25 25.37823 -60.75940 33091 ft 512 kts 112°
2026-05-07 21:25 25.34407 -60.69030 33089 ft 511 kts 112°
2026-05-07 21:26 25.30992 -60.62133 33091 ft 511 kts 112°
2026-05-07 21:26 25.27597 -60.55286 33086 ft 511 kts 112°
2026-05-07 21:27 25.24176 -60.48397 33091 ft 511 kts 112°
2026-05-07 21:27 25.20751 -60.41509 33076 ft 511 kts 112°
2026-05-07 21:28 25.17323 -60.34627 33089 ft 511 kts 112°
2026-05-07 21:28 25.13892 -60.27750 33095 ft 511 kts 112°
2026-05-07 21:29 25.10457 -60.20873 33076 ft 511 kts 112°
2026-05-07 21:29 25.07041 -60.14046 33089 ft 510 kts 112°
2026-05-07 21:30 25.03601 -60.07182 33091 ft 511 kts 112°
2026-05-07 21:30 25.00162 -60.00327 33094 ft 511 kts 112°
2026-05-07 21:31 24.97002 -59.93357 33092 ft 505 kts 107°
2026-05-07 21:31 24.94208 -59.86257 33095 ft 505 kts 107°
2026-05-07 21:32 24.91391 -59.79162 33091 ft 506 kts 108°
2026-05-07 21:32 24.88499 -59.72085 33091 ft 507 kts 108°
2026-05-07 21:33 24.85590 -59.65061 33091 ft 507 kts 108°
2026-05-07 21:33 24.82656 -59.57998 33103 ft 507 kts 109°
2026-05-07 21:34 24.79717 -59.50927 33093 ft 508 kts 109°
2026-05-07 21:34 24.76771 -59.43846 33087 ft 508 kts 109°
2026-05-07 21:35 24.73819 -59.36760 33090 ft 508 kts 109°
2026-05-07 21:35 24.70870 -59.29693 33096 ft 509 kts 109°
2026-05-07 21:36 24.67914 -59.22620 33087 ft 509 kts 109°
2026-05-07 21:36 24.64972 -59.15593 33089 ft 509 kts 109°
2026-05-07 21:37 24.62004 -59.08515 33093 ft 509 kts 109°
2026-05-07 21:37 24.59036 -59.01446 33094 ft 510 kts 110°
2026-05-07 21:38 24.56059 -58.94367 33091 ft 511 kts 110°
2026-05-07 21:38 24.53076 -58.87288 33089 ft 511 kts 110°
2026-05-07 21:39 24.50081 -58.80189 33091 ft 513 kts 111°
2026-05-07 21:39 24.47077 -58.73081 33091 ft 513 kts 111°
2026-05-07 21:40 24.44068 -58.65975 33091 ft 513 kts 111°
2026-05-07 21:40 24.41076 -58.58918 33091 ft 513 kts 111°
2026-05-07 21:41 24.38061 -58.51817 33091 ft 513 kts 111°
2026-05-07 21:41 24.35042 -58.44717 33094 ft 514 kts 111°
2026-05-07 21:42 24.32008 -58.37593 33094 ft 515 kts 111°
2026-05-07 21:42 24.28966 -58.30464 33094 ft 516 kts 111°
2026-05-07 21:43 24.25926 -58.23350 33094 ft 515 kts 111°
2026-05-07 21:43 24.22898 -58.16273 33096 ft 516 kts 112°
2026-05-07 21:44 24.19837 -58.09130 33091 ft 518 kts 112°
2026-05-07 21:44 24.16763 -58.01972 33092 ft 518 kts 112°
2026-05-07 21:45 24.13693 -57.94832 33092 ft 518 kts 112°
2026-05-07 21:45 24.11138 -57.88898 33093 ft 519 kts 112°
2026-05-07 21:46 24.07545 -57.80566 33091 ft 520 kts 112°
2026-05-07 21:46 24.04451 -57.73405 33091 ft 520 kts 112°
2026-05-07 21:47 24.01858 -57.67412 33091 ft 520 kts 112°
2026-05-07 21:47 23.98756 -57.60251 33092 ft 522 kts 113°
2026-05-07 21:48 23.95633 -57.53055 33091 ft 524 kts 113°
2026-05-07 21:48 23.92530 -57.45914 33091 ft 524 kts 113°
2026-05-07 21:49 23.89399 -57.38723 33091 ft 524 kts 113°
2026-05-07 21:49 23.86265 -57.31528 33092 ft 525 kts 113°
2026-05-07 21:50 23.83123 -57.24331 33093 ft 525 kts 113°
2026-05-07 21:50 23.79975 -57.17133 33089 ft 525 kts 113°
2026-05-07 21:51 23.76823 -57.09935 33097 ft 525 kts 114°
2026-05-07 21:51 23.73668 -57.02742 33092 ft 525 kts 114°
2026-05-07 21:52 23.70531 -56.95601 33094 ft 525 kts 114°
2026-05-07 21:52 23.67374 -56.88425 33091 ft 525 kts 114°
2026-05-07 21:53 23.64213 -56.81252 33090 ft 524 kts 115°
2026-05-07 21:53 23.61063 -56.74100 33094 ft 522 kts 115°
2026-05-07 21:54 23.57909 -56.66967 33097 ft 522 kts 115°
2026-05-07 21:54 23.54754 -56.59849 33095 ft 522 kts 115°
2026-05-07 21:55 23.51595 -56.52717 33091 ft 522 kts 116°
2026-05-07 21:55 23.48446 -56.45627 33086 ft 523 kts 116°
2026-05-07 21:56 23.45273 -56.38497 33091 ft 523 kts 116°
2026-05-07 21:56 23.42099 -56.31371 33093 ft 523 kts 116°
2026-05-07 21:57 23.38923 -56.24240 33094 ft 524 kts 117°
2026-05-07 21:57 23.35743 -56.17106 33084 ft 524 kts 118°
2026-05-07 21:58 23.32569 -56.10018 33092 ft 524 kts 118°
2026-05-07 21:58 23.29372 -56.02895 33088 ft 524 kts 118°
2026-05-07 21:59 23.26173 -55.95772 33089 ft 524 kts 118°
2026-05-07 21:59 23.22975 -55.88655 33088 ft 524 kts 118°
2026-05-07 22:00 23.19771 -55.81533 33091 ft 524 kts 118°
2026-05-07 22:00 23.16587 -55.74464 33091 ft 523 kts 118°
2026-05-07 22:01 23.13379 -55.67357 33089 ft 523 kts 118°
2026-05-07 22:01 23.10175 -55.60270 33088 ft 523 kts 118°
2026-05-07 22:02 23.06967 -55.53184 33091 ft 523 kts 118°
2026-05-07 22:02 23.03751 -55.46090 33089 ft 522 kts 119°
2026-05-07 22:03 23.00541 -55.39019 33089 ft 522 kts 119°
2026-05-07 22:03 22.97348 -55.31995 33086 ft 522 kts 119°
2026-05-07 22:04 22.94129 -55.24925 33085 ft 522 kts 120°
2026-05-07 22:04 22.90917 -55.17879 33089 ft 521 kts 120°
2026-05-07 22:05 22.87699 -55.10833 33086 ft 520 kts 120°
2026-05-07 22:05 22.84484 -55.03802 33086 ft 520 kts 120°
2026-05-07 22:06 22.81266 -54.96775 33086 ft 520 kts 120°
2026-05-07 22:06 22.78067 -54.89797 33073 ft 520 kts 120°
2026-05-07 22:07 22.74847 -54.82785 33089 ft 520 kts 120°
2026-05-07 22:07 22.71622 -54.75773 33089 ft 520 kts 120°
2026-05-07 22:08 22.68393 -54.68761 33089 ft 520 kts 120°
2026-05-07 22:08 22.65160 -54.61751 33083 ft 520 kts 120°
2026-05-07 22:09 22.61924 -54.54743 33086 ft 520 kts 120°
2026-05-07 22:09 22.58686 -54.47741 33084 ft 520 kts 121°
2026-05-07 22:10 22.55446 -54.40746 33086 ft 520 kts 121°
2026-05-07 22:10 22.52204 -54.33757 33086 ft 520 kts 121°
2026-05-07 22:11 22.48959 -54.26769 33086 ft 520 kts 121°
2026-05-07 22:11 22.45729 -54.19825 33084 ft 520 kts 121°
2026-05-07 22:12 22.42483 -54.12855 33085 ft 519 kts 121°
2026-05-07 22:12 22.39228 -54.05875 33085 ft 519 kts 121°
2026-05-07 22:13 22.35974 -53.98909 33075 ft 519 kts 121°
2026-05-07 22:13 22.32712 -53.91934 33087 ft 519 kts 121°
2026-05-07 22:14 22.29473 -53.85017 33088 ft 519 kts 121°
2026-05-07 22:14 22.26208 -53.78055 33078 ft 519 kts 121°
2026-05-07 22:15 22.22940 -53.71096 33082 ft 519 kts 121°
2026-05-07 22:15 22.19670 -53.64143 33068 ft 519 kts 121°
2026-05-07 22:16 22.16416 -53.57232 33077 ft 519 kts 121°
2026-05-07 22:16 22.13138 -53.50282 33079 ft 519 kts 121°
2026-05-07 22:17 22.09863 -53.43345 33082 ft 519 kts 122°
2026-05-07 22:17 22.06603 -53.36450 33081 ft 519 kts 122°
2026-05-07 22:18 22.01681 -53.26056 33079 ft 519 kts 122°
2026-05-07 22:19 21.98390 -53.19121 33079 ft 519 kts 122°
2026-05-07 22:19 21.95098 -53.12192 33081 ft 519 kts 122°
2026-05-07 22:20 21.91802 -53.05261 33078 ft 519 kts 122°
2026-05-07 22:20 21.88503 -52.98336 33075 ft 519 kts 122°
2026-05-07 22:21 21.85202 -52.91416 33078 ft 520 kts 122°
2026-05-07 22:21 21.81911 -52.84525 33078 ft 520 kts 122°
2026-05-07 22:22 21.78598 -52.77598 33080 ft 520 kts 122°
2026-05-07 22:22 21.75287 -52.70684 33072 ft 520 kts 122°
2026-05-07 22:23 21.71969 -52.63764 33069 ft 520 kts 122°
2026-05-07 22:23 21.68650 -52.56851 33089 ft 520 kts 122°
2026-05-07 22:24 21.65347 -52.49982 33082 ft 520 kts 122°
2026-05-07 22:24 21.62019 -52.43068 33074 ft 520 kts 122°
2026-05-07 22:25 21.58692 -52.36167 33076 ft 520 kts 122°
2026-05-07 22:25 21.55379 -52.29303 33077 ft 520 kts 122°
2026-05-07 22:26 21.52042 -52.22400 33077 ft 520 kts 122°
2026-05-07 22:26 21.48705 -52.15503 33080 ft 520 kts 122°
2026-05-07 22:27 21.45363 -52.08607 33077 ft 520 kts 122°
2026-05-07 22:27 21.42041 -52.01760 33071 ft 520 kts 122°
2026-05-07 22:28 21.38696 -51.94875 33074 ft 520 kts 122°
2026-05-07 22:28 21.35350 -51.87997 33075 ft 520 kts 122°
2026-05-07 22:29 21.32002 -51.81123 33077 ft 520 kts 122°
2026-05-07 22:29 21.28646 -51.74244 33074 ft 520 kts 122°
2026-05-07 22:30 21.25291 -51.67373 33074 ft 520 kts 122°
2026-05-07 22:30 21.21931 -51.60503 33075 ft 520 kts 123°
2026-05-07 22:31 21.18590 -51.53677 33072 ft 520 kts 122°
2026-05-07 22:31 21.15221 -51.46806 33069 ft 520 kts 122°
2026-05-07 22:32 21.11852 -51.39943 33072 ft 520 kts 123°
2026-05-07 22:32 21.08479 -51.33080 33054 ft 520 kts 123°
2026-05-07 22:33 21.05096 -51.26207 33072 ft 522 kts 123°
2026-05-07 22:33 21.01727 -51.19371 33071 ft 522 kts 123°
2026-05-07 22:34 20.98335 -51.12493 33072 ft 523 kts 123°
2026-05-07 22:34 20.94937 -51.05614 33065 ft 523 kts 123°
2026-05-07 22:35 20.91535 -50.98736 33068 ft 523 kts 123°
2026-05-07 22:35 20.88704 -50.93018 33065 ft 523 kts 123°
2026-05-07 22:36 20.85300 -50.86154 33080 ft 523 kts 123°
2026-05-07 22:36 20.81335 -50.78166 33081 ft 523 kts 123°
2026-05-07 22:37 20.78468 -50.72399 33061 ft 523 kts 123°
2026-05-07 22:37 20.75074 -50.65578 33081 ft 523 kts 123°
2026-05-07 22:38 20.71652 -50.58710 33071 ft 524 kts 123°
2026-05-07 22:38 20.68226 -50.51842 33070 ft 524 kts 123°
2026-05-07 22:39 20.64796 -50.44976 33070 ft 524 kts 123°
2026-05-07 22:39 20.61363 -50.38111 33068 ft 524 kts 123°
2026-05-07 22:40 20.57927 -50.31248 33073 ft 524 kts 123°
2026-05-07 22:40 20.54486 -50.24386 33071 ft 524 kts 123°
2026-05-07 22:41 20.51047 -50.17534 33064 ft 524 kts 123°
2026-05-07 22:41 20.47599 -50.10674 33073 ft 524 kts 123°
2026-05-07 22:42 20.44147 -50.03815 33069 ft 524 kts 123°
2026-05-07 22:42 20.40714 -49.97000 33069 ft 525 kts 123°
2026-05-07 22:43 20.37249 -49.90131 33072 ft 525 kts 123°
2026-05-07 22:43 20.33789 -49.83279 33075 ft 525 kts 123°
2026-05-07 22:44 20.30325 -49.76431 33066 ft 525 kts 123°
2026-05-07 22:44 20.26884 -49.69633 33067 ft 525 kts 123°
2026-05-07 22:45 20.23409 -49.62779 33069 ft 525 kts 123°
2026-05-07 22:45 20.19935 -49.55933 33069 ft 525 kts 123°
2026-05-07 22:46 20.16459 -49.49091 33069 ft 525 kts 123°
2026-05-07 22:46 20.12998 -49.42288 33069 ft 525 kts 123°
2026-05-07 22:47 20.09519 -49.35458 33069 ft 525 kts 123°
2026-05-07 22:47 20.06039 -49.28634 33066 ft 525 kts 122°
2026-05-07 22:48 20.02553 -49.21808 33067 ft 525 kts 122°
2026-05-07 22:48 19.99068 -49.14988 33067 ft 525 kts 122°
2026-05-07 22:49 19.95597 -49.08208 33063 ft 525 kts 123°
2026-05-07 22:49 19.92106 -49.01394 33067 ft 525 kts 122°
2026-05-07 22:50 19.88609 -48.94577 33067 ft 525 kts 122°
2026-05-07 22:50 19.85109 -48.87762 33066 ft 525 kts 122°
2026-05-07 22:51 19.81608 -48.80953 33064 ft 525 kts 122°
2026-05-07 22:51 19.78105 -48.74150 33063 ft 525 kts 122°
2026-05-07 22:52 19.74615 -48.67379 33065 ft 525 kts 122°
2026-05-07 22:52 19.71107 -48.60581 33063 ft 525 kts 122°
2026-05-07 22:53 19.67598 -48.53787 33064 ft 525 kts 122°
2026-05-07 22:53 19.64086 -48.46998 33064 ft 525 kts 122°
2026-05-07 22:54 19.60572 -48.40211 33064 ft 525 kts 122°
2026-05-07 22:54 19.57055 -48.33429 33061 ft 525 kts 122°
2026-05-07 22:55 19.53539 -48.26654 33058 ft 524 kts 122°
2026-05-07 22:55 19.50019 -48.19879 33053 ft 525 kts 122°
2026-05-07 22:56 19.46490 -48.13097 33057 ft 524 kts 122°
2026-05-07 22:56 19.42962 -48.06323 33056 ft 524 kts 122°
2026-05-07 22:57 19.39456 -47.99599 33058 ft 524 kts 122°
2026-05-07 22:57 19.35929 -47.92841 33053 ft 524 kts 122°
2026-05-07 22:58 19.32398 -47.86084 33062 ft 524 kts 122°
2026-05-07 22:58 19.28864 -47.79331 33059 ft 524 kts 122°
2026-05-07 22:59 19.25321 -47.72567 33063 ft 524 kts 122°
2026-05-07 22:59 19.21809 -47.65868 33058 ft 524 kts 122°
2026-05-07 23:00 19.18267 -47.59123 33053 ft 524 kts 122°
2026-05-07 23:00 19.14723 -47.52379 33062 ft 524 kts 122°
2026-05-07 23:01 19.11180 -47.45644 33061 ft 524 kts 122°
2026-05-07 23:01 19.07634 -47.38914 33058 ft 524 kts 122°
2026-05-07 23:02 19.04086 -47.32184 33059 ft 523 kts 122°
2026-05-07 23:02 19.00565 -47.25515 33056 ft 522 kts 122°
2026-05-07 23:03 18.97021 -47.18809 33058 ft 522 kts 122°
2026-05-07 23:03 18.93472 -47.12103 33059 ft 522 kts 122°
2026-05-07 23:04 18.89926 -47.05408 33056 ft 522 kts 122°
2026-05-07 23:04 18.86374 -46.98710 33056 ft 522 kts 122°
2026-05-07 23:05 18.82823 -46.92021 33054 ft 522 kts 122°
2026-05-07 23:05 18.79294 -46.85379 33048 ft 521 kts 122°
2026-05-07 23:06 18.75741 -46.78701 33055 ft 522 kts 122°
2026-05-07 23:06 18.72180 -46.72015 33058 ft 522 kts 122°
2026-05-07 23:07 18.68618 -46.65334 33059 ft 522 kts 122°
2026-05-07 23:07 18.65056 -46.58660 33058 ft 522 kts 122°
2026-05-07 23:08 18.61491 -46.51988 33057 ft 522 kts 122°
2026-05-07 23:08 18.57930 -46.45330 33056 ft 521 kts 122°
2026-05-07 23:09 18.54367 -46.38676 33057 ft 521 kts 122°
2026-05-07 23:09 18.50798 -46.32019 33058 ft 521 kts 122°
2026-05-07 23:10 18.47234 -46.25377 33055 ft 521 kts 122°
2026-05-07 23:10 18.43691 -46.18783 33060 ft 521 kts 122°
2026-05-07 23:11 18.40121 -46.12143 33057 ft 520 kts 122°
2026-05-07 23:11 18.36553 -46.05515 33057 ft 520 kts 122°
2026-05-07 23:12 18.32985 -45.98894 33059 ft 520 kts 122°
2026-05-07 23:12 18.29411 -45.92269 33058 ft 520 kts 122°
2026-05-07 23:13 18.25831 -45.85640 33059 ft 520 kts 122°
2026-05-07 23:13 18.22277 -45.79065 33059 ft 520 kts 122°
2026-05-07 23:14 18.18700 -45.72456 33055 ft 520 kts 122°
2026-05-07 23:14 18.15123 -45.65852 33054 ft 519 kts 122°
2026-05-07 23:15 18.11543 -45.59250 33057 ft 519 kts 122°
2026-05-07 23:15 18.07963 -45.52656 33055 ft 520 kts 122°
2026-05-07 23:16 18.04374 -45.46051 33048 ft 520 kts 122°
2026-05-07 23:16 18.00814 -45.39505 33160 ft 518 kts 122°
2026-05-07 23:16 17.99041 -45.36223 33526 ft 514 kts 121°
2026-05-07 23:17 17.97381 -45.32900 33884 ft 512 kts 119°
2026-05-07 23:17 17.95806 -45.29550 34122 ft 511 kts 118°
2026-05-07 23:17 17.94260 -45.26196 34270 ft 511 kts 118°
2026-05-07 23:17 17.92710 -45.22834 34408 ft 511 kts 118°
2026-05-07 23:18 17.91147 -45.19475 34549 ft 511 kts 118°
2026-05-07 23:18 17.89572 -45.16130 34679 ft 511 kts 119°
2026-05-07 23:18 17.87989 -45.12793 34839 ft 511 kts 119°
2026-05-07 23:18 17.86395 -45.09450 34973 ft 510 kts 119°
2026-05-07 23:19 17.84803 -45.06120 35052 ft 512 kts 119°
2026-05-07 23:19 17.81605 -44.99445 35057 ft 517 kts 119°
2026-05-07 23:20 17.78378 -44.92709 35056 ft 517 kts 119°
2026-05-07 23:20 17.75151 -44.85976 35056 ft 517 kts 119°
2026-05-07 23:21 17.71914 -44.79226 35054 ft 517 kts 119°
2026-05-07 23:21 17.68679 -44.72490 35054 ft 517 kts 119°
2026-05-07 23:22 17.65443 -44.65760 35051 ft 517 kts 119°
2026-05-07 23:22 17.62228 -44.59081 35048 ft 517 kts 119°
2026-05-07 23:23 17.58986 -44.52352 35054 ft 517 kts 119°
2026-05-07 23:23 17.55735 -44.45611 35071 ft 517 kts 119°
2026-05-07 23:24 17.53036 -44.40022 35052 ft 517 kts 119°
2026-05-07 23:24 17.49789 -44.33303 35052 ft 517 kts 119°
2026-05-07 23:25 17.46012 -44.25496 35054 ft 517 kts 119°
2026-05-07 23:25 17.43305 -44.19908 35065 ft 517 kts 119°
2026-05-07 23:26 17.40047 -44.13187 35064 ft 517 kts 119°
2026-05-07 23:26 17.36785 -44.06465 35067 ft 517 kts 119°
2026-05-07 23:27 17.31895 -43.96403 35054 ft 517 kts 119°
2026-05-07 23:27 17.28630 -43.89692 35051 ft 517 kts 119°
2026-05-07 23:28 17.25360 -43.82980 35052 ft 517 kts 119°
2026-05-07 23:28 17.22090 -43.76273 35050 ft 517 kts 119°
2026-05-07 23:29 17.18840 -43.69613 35052 ft 517 kts 119°
2026-05-07 23:29 17.15565 -43.62910 35053 ft 517 kts 119°
2026-05-07 23:30 17.12285 -43.56204 35057 ft 518 kts 119°
2026-05-07 23:30 17.08994 -43.49482 35061 ft 518 kts 119°
2026-05-07 23:31 17.05703 -43.42769 35060 ft 518 kts 119°
2026-05-07 23:31 17.02413 -43.36062 35061 ft 518 kts 119°
2026-05-07 23:32 16.99123 -43.29362 35055 ft 518 kts 119°
2026-05-07 23:32 16.95847 -43.22699 35052 ft 519 kts 119°
2026-05-07 23:33 16.92548 -43.15994 35058 ft 519 kts 119°
2026-05-07 23:33 16.89245 -43.09289 35058 ft 519 kts 119°
2026-05-07 23:34 16.85939 -43.02584 35059 ft 519 kts 119°
2026-05-07 23:34 16.82633 -42.95885 35049 ft 519 kts 119°
2026-05-07 23:35 16.79325 -42.89190 35057 ft 519 kts 119°
2026-05-07 23:35 16.76008 -42.82485 35057 ft 520 kts 119°
2026-05-07 23:36 16.72689 -42.75780 35060 ft 519 kts 119°
2026-05-07 23:36 16.69370 -42.69082 35059 ft 519 kts 119°
2026-05-07 23:37 16.66066 -42.62422 35057 ft 519 kts 119°
2026-05-07 23:37 16.62739 -42.55723 35059 ft 520 kts 119°
2026-05-07 23:38 16.59412 -42.49029 35058 ft 520 kts 119°
2026-05-07 23:38 16.56079 -42.42329 35061 ft 520 kts 119°
2026-05-07 23:39 16.52768 -42.35682 35058 ft 520 kts 119°
2026-05-07 23:39 16.49436 -42.28997 35056 ft 520 kts 119°
2026-05-07 23:40 16.46103 -42.22317 35058 ft 520 kts 119°
2026-05-07 23:40 16.42760 -42.15625 35060 ft 521 kts 119°
2026-05-07 23:41 16.39411 -42.08927 35062 ft 521 kts 119°
2026-05-07 23:41 16.36060 -42.02231 35061 ft 521 kts 119°
2026-05-07 23:42 16.32731 -41.95585 35059 ft 521 kts 119°
2026-05-07 23:42 16.29382 -41.88907 35059 ft 520 kts 119°
2026-05-07 23:43 16.26027 -41.82223 35062 ft 520 kts 119°
2026-05-07 23:43 16.22673 -41.75547 35060 ft 520 kts 119°
2026-05-07 23:44 16.19320 -41.68879 35059 ft 520 kts 119°
2026-05-07 23:44 16.15964 -41.62212 35059 ft 520 kts 119°
2026-05-07 23:45 16.12601 -41.55539 35055 ft 520 kts 119°
2026-05-07 23:45 16.09257 -41.48909 35059 ft 521 kts 119°
2026-05-07 23:46 16.05892 -41.42242 35058 ft 521 kts 119°
2026-05-07 23:46 16.02521 -41.35571 35059 ft 521 kts 119°
2026-05-07 23:47 15.99151 -41.28908 35062 ft 521 kts 119°
2026-05-07 23:47 15.95778 -41.22246 35059 ft 521 kts 119°
2026-05-07 23:48 15.92394 -41.15567 35056 ft 521 kts 119°
2026-05-07 23:48 15.89031 -41.08937 35057 ft 522 kts 119°
2026-05-07 23:49 15.85644 -41.02266 35059 ft 522 kts 119°
2026-05-07 23:49 15.82251 -40.95588 35059 ft 522 kts 119°
2026-05-07 23:50 15.78860 -40.88922 35058 ft 522 kts 119°
2026-05-07 23:50 15.75468 -40.82260 35056 ft 522 kts 119°
2026-05-07 23:51 15.72091 -40.75632 35056 ft 523 kts 119°
2026-05-07 23:51 15.68688 -40.68961 35056 ft 523 kts 119°
2026-05-07 23:52 15.65283 -40.62291 35055 ft 523 kts 119°
2026-05-07 23:52 15.61871 -40.55616 35056 ft 523 kts 119°
2026-05-07 23:53 15.58460 -40.48947 35057 ft 523 kts 119°
2026-05-07 23:53 15.55072 -40.42329 35055 ft 524 kts 119°
2026-05-07 23:54 15.51645 -40.35640 35057 ft 524 kts 119°
2026-05-07 23:54 15.48221 -40.28965 35056 ft 524 kts 119°
2026-05-07 23:55 15.44793 -40.22287 35056 ft 524 kts 119°
2026-05-07 23:55 15.41366 -40.15618 35056 ft 524 kts 119°
2026-05-07 23:56 15.37962 -40.08998 35054 ft 524 kts 119°
2026-05-07 23:56 15.34525 -40.02321 35060 ft 525 kts 119°
2026-05-07 23:57 15.31092 -39.95646 35056 ft 525 kts 119°
2026-05-07 23:57 15.27674 -39.88952 35056 ft 525 kts 119°
2026-05-07 23:58 15.24259 -39.82266 35055 ft 525 kts 119°
2026-05-07 23:58 15.20843 -39.75594 35056 ft 524 kts 119°
2026-05-07 23:59 15.17423 -39.68921 35057 ft 525 kts 119°
2026-05-07 23:59 15.14016 -39.62283 35052 ft 526 kts 119°
2026-05-08 00:00 15.10582 -39.55596 35056 ft 526 kts 119°
2026-05-08 00:00 15.07145 -39.48910 35055 ft 525 kts 119°
2026-05-08 00:01 15.03710 -39.42234 35054 ft 525 kts 119°
2026-05-08 00:01 15.00295 -39.35601 35044 ft 525 kts 119°
2026-05-08 00:02 14.96852 -39.28921 35049 ft 526 kts 119°
2026-05-08 00:02 14.93405 -39.22241 35050 ft 526 kts 119°
2026-05-08 00:03 14.89958 -39.15564 35047 ft 526 kts 119°
2026-05-08 00:03 14.86527 -39.08926 35048 ft 526 kts 119°
2026-05-08 00:04 14.83082 -39.02264 35047 ft 525 kts 119°
2026-05-08 00:04 14.79633 -38.95603 35046 ft 525 kts 119°
2026-05-08 00:05 14.76179 -38.88936 35051 ft 527 kts 119°
2026-05-08 00:05 14.72718 -38.82262 35050 ft 527 kts 119°
2026-05-08 00:06 14.69254 -38.75588 35047 ft 527 kts 119°
2026-05-08 00:06 14.65788 -38.68916 35047 ft 527 kts 119°
2026-05-08 00:07 14.62320 -38.62247 35045 ft 526 kts 119°
2026-05-08 00:07 14.58876 -38.55627 35045 ft 526 kts 119°
2026-05-08 00:08 14.55405 -38.48964 35048 ft 527 kts 119°
2026-05-08 00:08 14.51926 -38.42290 35045 ft 528 kts 119°
2026-05-08 00:09 14.48448 -38.35623 35047 ft 527 kts 119°
2026-05-08 00:09 14.44965 -38.28953 35061 ft 527 kts 119°
2026-05-08 00:10 14.41485 -38.22295 35063 ft 527 kts 119°
2026-05-08 00:10 14.38006 -38.15643 35049 ft 527 kts 119°
2026-05-08 00:11 14.34540 -38.09022 35047 ft 527 kts 119°
2026-05-08 00:11 14.31051 -38.02363 35048 ft 527 kts 119°
2026-05-08 00:12 14.27569 -37.95722 35046 ft 527 kts 119°
2026-05-08 00:12 14.24668 -37.90194 35048 ft 527 kts 119°
2026-05-08 00:13 14.21175 -37.83543 35044 ft 527 kts 119°
2026-05-08 00:13 14.17681 -37.76897 35057 ft 527 kts 119°
2026-05-08 00:14 14.14183 -37.70247 35041 ft 528 kts 119°
2026-05-08 00:14 14.10681 -37.63595 35041 ft 528 kts 119°
2026-05-08 00:15 14.07172 -37.56936 35039 ft 528 kts 119°
2026-05-08 00:15 14.03685 -37.50323 35043 ft 528 kts 119°
2026-05-08 00:16 14.00111 -37.43716 35040 ft 528 kts 124°
2026-05-08 00:16 13.95971 -37.37484 35056 ft 528 kts 126°
2026-05-08 00:17 13.91706 -37.31323 35042 ft 528 kts 127°
2026-05-08 00:17 13.87411 -37.25166 35039 ft 529 kts 127°
2026-05-08 00:18 13.83129 -37.19017 35041 ft 528 kts 126°
2026-05-08 00:18 13.78852 -37.12864 35044 ft 528 kts 126°
2026-05-08 00:19 13.74576 -37.06713 35037 ft 528 kts 126°
2026-05-08 00:19 13.70316 -37.00590 35036 ft 529 kts 126°
2026-05-08 00:20 13.66024 -36.94426 35055 ft 530 kts 126°
2026-05-08 00:20 13.61735 -36.88270 35039 ft 530 kts 126°
2026-05-08 00:21 13.57437 -36.82106 35053 ft 530 kts 126°
2026-05-08 00:21 13.53144 -36.75955 35036 ft 530 kts 127°
2026-05-08 00:22 13.48850 -36.69805 35053 ft 530 kts 127°
2026-05-08 00:22 13.44545 -36.63645 35055 ft 530 kts 127°
2026-05-08 00:23 13.40238 -36.57486 35036 ft 530 kts 127°
2026-05-08 00:23 13.35960 -36.51373 35046 ft 531 kts 127°
2026-05-08 00:24 13.31649 -36.45217 35052 ft 530 kts 127°
2026-05-08 00:24 13.27339 -36.39066 35042 ft 531 kts 127°
2026-05-08 00:25 13.23024 -36.32914 35040 ft 531 kts 127°
2026-05-08 00:25 13.18699 -36.26750 35042 ft 531 kts 127°
2026-05-08 00:26 13.14405 -36.20636 35030 ft 531 kts 127°
2026-05-08 00:26 13.10084 -36.14487 35049 ft 531 kts 127°
2026-05-08 00:27 13.05756 -36.08332 35028 ft 531 kts 127°
2026-05-08 00:27 13.01433 -36.02188 35043 ft 531 kts 127°
2026-05-08 00:28 12.97106 -35.96043 35045 ft 532 kts 127°
2026-05-08 00:28 12.92798 -35.89930 35046 ft 532 kts 127°
2026-05-08 00:29 12.88467 -35.83788 35041 ft 532 kts 127°
2026-05-08 00:29 12.84121 -35.77629 35042 ft 532 kts 127°
2026-05-08 00:30 12.79783 -35.71485 35039 ft 532 kts 127°
2026-05-08 00:30 12.75438 -35.65335 35040 ft 533 kts 127°
2026-05-08 00:31 12.71086 -35.59179 35033 ft 533 kts 127°
2026-05-08 00:31 12.66764 -35.53071 35034 ft 532 kts 127°
2026-05-08 00:32 12.62415 -35.46928 35037 ft 532 kts 127°
2026-05-08 00:32 12.58061 -35.40782 35039 ft 533 kts 127°
2026-05-08 00:33 12.53709 -35.34643 35037 ft 533 kts 127°
2026-05-08 00:33 12.49358 -35.28510 35035 ft 533 kts 127°
2026-05-08 00:34 12.45002 -35.22373 35034 ft 532 kts 127°
2026-05-08 00:34 12.40671 -35.16276 35029 ft 533 kts 127°
2026-05-08 00:35 12.36314 -35.10146 35035 ft 533 kts 127°
2026-05-08 00:35 12.31953 -35.04014 35035 ft 533 kts 127°
2026-05-08 00:36 12.27579 -34.97868 35036 ft 533 kts 128°
2026-05-08 00:36 12.23209 -34.91732 35028 ft 533 kts 128°
2026-05-08 00:37 12.18869 -34.85641 35032 ft 533 kts 128°
2026-05-08 00:38 12.12308 -34.76442 35033 ft 533 kts 128°
2026-05-08 00:38 12.07928 -34.70305 35033 ft 534 kts 128°
2026-05-08 00:39 12.03574 -34.64208 35031 ft 534 kts 128°
2026-05-08 00:39 11.99192 -34.58076 35031 ft 534 kts 128°
2026-05-08 00:40 11.94808 -34.51946 35033 ft 534 kts 128°
2026-05-08 00:40 11.90422 -34.45816 35031 ft 534 kts 128°
2026-05-08 00:41 11.86031 -34.39683 35027 ft 535 kts 128°
2026-05-08 00:41 11.81643 -34.33560 35029 ft 534 kts 128°
2026-05-08 00:42 11.77279 -34.27474 35031 ft 534 kts 128°
2026-05-08 00:42 11.72889 -34.21356 35027 ft 534 kts 128°
2026-05-08 00:43 11.68493 -34.15232 35031 ft 534 kts 128°
2026-05-08 00:43 11.64091 -34.09104 35026 ft 535 kts 128°
2026-05-08 00:44 11.59691 -34.02983 35026 ft 535 kts 128°
2026-05-08 00:44 11.55289 -33.96862 35023 ft 535 kts 129°
2026-05-08 00:45 11.50891 -33.90752 35031 ft 534 kts 129°
2026-05-08 00:45 11.46489 -33.84639 35030 ft 534 kts 129°
2026-05-08 00:46 11.42112 -33.78564 35029 ft 534 kts 129°
2026-05-08 00:46 11.37704 -33.72449 35029 ft 535 kts 129°
2026-05-08 00:47 11.33301 -33.66346 35028 ft 535 kts 129°
2026-05-08 00:47 11.28886 -33.60230 35023 ft 535 kts 129°
2026-05-08 00:48 11.24473 -33.54120 35029 ft 535 kts 129°
2026-05-08 00:48 11.20059 -33.48012 35029 ft 535 kts 129°
2026-05-08 00:49 11.15643 -33.41905 35024 ft 535 kts 129°
2026-05-08 00:49 11.11244 -33.35826 35026 ft 535 kts 129°
2026-05-08 00:50 11.06824 -33.29720 35022 ft 535 kts 129°
2026-05-08 00:50 11.02402 -33.23616 35018 ft 535 kts 129°
2026-05-08 00:51 10.97985 -33.17520 35020 ft 534 kts 129°
2026-05-08 00:51 10.93592 -33.11463 35021 ft 534 kts 129°
2026-05-08 00:52 10.89177 -33.05380 35021 ft 534 kts 129°
2026-05-08 00:52 10.84764 -32.99301 35021 ft 534 kts 129°
2026-05-08 00:53 10.80341 -32.93213 35019 ft 534 kts 129°
2026-05-08 00:53 10.75921 -32.87132 35017 ft 534 kts 129°
2026-05-08 00:54 10.71512 -32.81069 35017 ft 533 kts 129°
2026-05-08 00:54 10.67099 -32.75005 35018 ft 533 kts 129°
2026-05-08 00:55 10.62718 -32.68987 35017 ft 533 kts 129°
2026-05-08 00:55 10.58304 -32.62927 35017 ft 533 kts 129°
2026-05-08 00:56 10.53892 -32.56874 35016 ft 533 kts 129°
2026-05-08 00:56 10.49483 -32.50829 35012 ft 532 kts 129°
2026-05-08 00:57 10.45083 -32.44797 35015 ft 530 kts 129°
2026-05-08 00:57 10.40689 -32.38778 35015 ft 530 kts 129°
2026-05-08 00:58 10.36296 -32.32764 35015 ft 530 kts 129°
2026-05-08 00:58 10.31931 -32.26793 35015 ft 530 kts 129°
2026-05-08 00:59 10.27531 -32.20775 35015 ft 530 kts 129°
2026-05-08 00:59 10.23133 -32.14765 35009 ft 530 kts 129°
2026-05-08 01:00 10.18742 -32.08764 35018 ft 529 kts 129°
2026-05-08 01:00 10.14356 -32.02775 35015 ft 529 kts 129°
2026-05-08 01:01 10.10705 -31.97793 35017 ft 529 kts 129°
2026-05-08 01:01 10.06319 -31.91810 35010 ft 529 kts 129°
2026-05-08 01:02 10.01927 -31.85822 35011 ft 529 kts 129°
2026-05-08 01:02 9.97534 -31.79836 35007 ft 529 kts 129°
2026-05-08 01:03 9.93142 -31.73854 35008 ft 527 kts 129°
2026-05-08 01:03 9.88768 -31.67899 35008 ft 526 kts 129°
2026-05-08 01:04 9.84397 -31.61951 35007 ft 526 kts 129°
2026-05-08 01:04 9.80028 -31.56010 35008 ft 526 kts 129°
2026-05-08 01:05 9.75681 -31.50102 35002 ft 525 kts 129°
2026-05-08 01:05 9.71314 -31.44169 35004 ft 525 kts 129°
2026-05-08 01:06 9.66948 -31.38240 35072 ft 524 kts 129°
2026-05-08 01:06 9.64774 -31.35289 35367 ft 520 kts 129°
2026-05-08 01:06 9.62612 -31.32354 35635 ft 518 kts 129°
2026-05-08 01:06 9.60462 -31.29437 35821 ft 517 kts 129°
2026-05-08 01:07 9.58310 -31.26518 35974 ft 517 kts 129°
2026-05-08 01:07 9.56156 -31.23598 36126 ft 517 kts 129°
2026-05-08 01:07 9.54003 -31.20680 36279 ft 516 kts 129°
2026-05-08 01:07 9.51854 -31.17766 36416 ft 516 kts 129°
2026-05-08 01:08 9.49733 -31.14892 36576 ft 516 kts 129°
2026-05-08 01:08 9.47557 -31.11945 36712 ft 515 kts 129°
2026-05-08 01:08 9.45411 -31.09038 36839 ft 515 kts 129°
2026-05-08 01:08 9.43291 -31.06167 36953 ft 515 kts 129°
2026-05-08 01:09 9.41134 -31.03248 37000 ft 517 kts 129°
2026-05-08 01:09 9.36806 -30.97392 37001 ft 521 kts 129°
2026-05-08 01:10 9.32458 -30.91511 37002 ft 520 kts 129°
2026-05-08 01:10 9.28120 -30.85643 37000 ft 520 kts 129°
2026-05-08 01:11 9.23784 -30.79784 36998 ft 520 kts 129°
2026-05-08 01:11 9.19473 -30.73961 36995 ft 520 kts 129°
2026-05-08 01:12 9.15127 -30.68093 36989 ft 520 kts 129°
2026-05-08 01:12 9.10787 -30.62235 36983 ft 519 kts 129°
2026-05-08 01:13 9.06464 -30.56403 36991 ft 516 kts 129°
2026-05-08 01:13 9.02159 -30.50598 36991 ft 516 kts 129°
2026-05-08 01:14 8.97851 -30.44794 36993 ft 516 kts 129°
2026-05-08 01:14 8.93568 -30.39025 36995 ft 516 kts 129°
2026-05-08 01:15 8.89261 -30.33224 36990 ft 515 kts 129°
2026-05-08 01:15 8.84966 -30.27443 36988 ft 514 kts 129°
2026-05-08 01:16 8.80665 -30.21657 36988 ft 515 kts 129°
2026-05-08 01:16 8.76355 -30.15861 36987 ft 515 kts 129°
2026-05-08 01:17 8.72051 -30.10076 36990 ft 515 kts 129°
2026-05-08 01:17 8.67745 -30.04291 36988 ft 515 kts 129°
2026-05-08 01:18 8.63456 -29.98531 36986 ft 515 kts 129°
2026-05-08 01:18 8.59143 -29.92741 36988 ft 515 kts 129°
2026-05-08 01:19 8.54820 -29.86940 36990 ft 516 kts 129°
2026-05-08 01:19 8.50499 -29.81144 36986 ft 516 kts 129°
2026-05-08 01:20 8.46183 -29.75360 36985 ft 515 kts 129°
2026-05-08 01:20 8.41897 -29.69614 36982 ft 515 kts 129°
2026-05-08 01:21 8.37580 -29.63829 36985 ft 515 kts 129°
2026-05-08 01:21 8.33264 -29.58048 36985 ft 515 kts 129°
2026-05-08 01:22 8.28944 -29.52264 36983 ft 515 kts 129°
2026-05-08 01:22 8.24629 -29.46489 36982 ft 514 kts 129°
2026-05-08 01:23 8.20338 -29.40739 36985 ft 511 kts 129°
2026-05-08 01:23 8.16065 -29.35026 36983 ft 510 kts 130°
2026-05-08 01:24 8.11787 -29.29315 36983 ft 510 kts 130°
2026-05-08 01:24 8.07534 -29.23636 36983 ft 510 kts 130°
2026-05-08 01:25 8.03258 -29.17926 36982 ft 510 kts 130°
2026-05-08 01:25 7.98988 -29.12225 36982 ft 509 kts 130°
2026-05-08 01:26 7.94711 -29.06518 36981 ft 509 kts 129°
2026-05-08 01:26 7.90435 -29.00814 36982 ft 509 kts 129°
2026-05-08 01:27 7.86161 -28.95114 36982 ft 509 kts 129°
2026-05-08 01:27 7.81910 -28.89448 36982 ft 510 kts 129°
2026-05-08 01:28 7.77628 -28.83742 36983 ft 510 kts 129°
2026-05-08 01:28 7.73347 -28.78040 36979 ft 510 kts 129°
2026-05-08 01:29 7.69065 -28.72339 36980 ft 510 kts 129°
2026-05-08 01:29 7.64778 -28.66634 36980 ft 510 kts 129°
2026-05-08 01:30 7.60508 -28.60952 36977 ft 508 kts 129°
2026-05-08 01:30 7.56242 -28.55278 36979 ft 507 kts 129°
2026-05-08 01:31 7.52004 -28.49645 36977 ft 507 kts 129°
2026-05-08 01:31 7.47740 -28.43979 36977 ft 507 kts 129°
2026-05-08 01:32 7.43473 -28.38310 36975 ft 507 kts 129°
2026-05-08 01:32 7.39208 -28.32646 36974 ft 507 kts 129°
2026-05-08 01:33 7.34942 -28.26984 36974 ft 507 kts 129°
2026-05-08 01:33 7.30678 -28.21325 36974 ft 506 kts 129°
2026-05-08 01:34 7.26417 -28.15674 36976 ft 506 kts 129°
2026-05-08 01:34 7.22158 -28.10029 36971 ft 506 kts 129°
2026-05-08 01:35 7.17918 -28.04410 36977 ft 506 kts 129°
2026-05-08 01:35 7.13643 -27.98748 36976 ft 507 kts 129°
2026-05-08 01:36 7.09368 -27.93087 36970 ft 507 kts 129°
2026-05-08 01:36 7.05114 -27.87457 36973 ft 507 kts 129°
2026-05-08 01:37 7.00864 -27.81824 36972 ft 501 kts 129°
2026-05-08 01:37 6.96648 -27.76249 36974 ft 500 kts 129°
2026-05-08 01:38 6.92457 -27.70698 36968 ft 497 kts 129°
2026-05-08 01:38 6.88268 -27.65167 36969 ft 496 kts 129°
2026-05-08 01:39 6.84081 -27.59640 36969 ft 496 kts 129°
2026-05-08 01:39 6.79921 -27.54153 36969 ft 496 kts 129°
2026-05-08 01:40 6.75737 -27.48634 36965 ft 496 kts 129°
2026-05-08 01:40 6.71547 -27.43107 36964 ft 495 kts 129°
2026-05-08 01:41 6.67373 -27.37602 36963 ft 494 kts 129°
2026-05-08 01:41 6.63196 -27.32097 36963 ft 494 kts 129°
2026-05-08 01:42 6.59028 -27.26605 36963 ft 494 kts 129°
2026-05-08 01:42 6.54880 -27.21142 36963 ft 494 kts 129°
2026-05-08 01:43 6.50707 -27.15646 36963 ft 494 kts 129°
2026-05-08 01:43 6.46530 -27.10147 36960 ft 494 kts 129°
2026-05-08 01:44 6.42354 -27.04652 36961 ft 494 kts 129°
2026-05-08 01:44 6.38181 -26.99156 36961 ft 494 kts 129°
2026-05-08 01:45 6.34040 -26.93699 36960 ft 494 kts 129°
2026-05-08 01:45 6.29864 -26.88199 36960 ft 494 kts 129°
2026-05-08 01:46 6.25688 -26.82702 36961 ft 495 kts 129°
2026-05-08 01:46 6.21509 -26.77203 36957 ft 495 kts 129°
2026-05-08 01:47 6.17331 -26.71705 36956 ft 495 kts 129°
2026-05-08 01:47 6.13176 -26.66241 36955 ft 495 kts 129°
2026-05-08 01:48 6.06899 -26.57981 36955 ft 496 kts 129°
2026-05-08 01:48 6.03415 -26.53392 36956 ft 497 kts 129°
2026-05-08 01:49 5.99209 -26.47862 36954 ft 498 kts 129°
2026-05-08 01:49 5.94995 -26.42336 36955 ft 498 kts 129°
2026-05-08 01:50 5.90779 -26.36810 36955 ft 498 kts 129°
2026-05-08 01:50 5.86561 -26.31277 36955 ft 498 kts 129°
2026-05-08 01:51 5.82372 -26.25779 36950 ft 498 kts 129°
2026-05-08 01:51 5.78157 -26.20248 36952 ft 498 kts 129°
2026-05-08 01:52 5.73942 -26.14719 36952 ft 498 kts 129°
2026-05-08 01:52 5.69755 -26.09229 36952 ft 498 kts 129°
2026-05-08 01:53 5.65547 -26.03713 36949 ft 497 kts 129°
2026-05-08 01:53 5.61333 -25.98189 36949 ft 497 kts 129°
2026-05-08 01:54 5.57118 -25.92668 36949 ft 497 kts 129°
2026-05-08 01:54 5.52911 -25.87156 36949 ft 498 kts 129°
2026-05-08 01:55 5.48518 -25.81803 36952 ft 496 kts 134°
2026-05-08 01:55 5.43837 -25.76708 36952 ft 496 kts 134°
2026-05-08 01:56 5.39145 -25.71698 36950 ft 495 kts 134°
2026-05-08 01:56 5.34426 -25.66666 36949 ft 495 kts 134°
2026-05-08 01:57 5.29713 -25.61630 36949 ft 495 kts 134°
2026-05-08 01:57 5.25000 -25.56591 36950 ft 495 kts 134°
2026-05-08 01:58 5.20293 -25.51556 36949 ft 495 kts 134°
2026-05-08 01:58 5.15584 -25.46521 36947 ft 495 kts 134°
2026-05-08 01:59 5.10877 -25.41485 36948 ft 494 kts 134°
2026-05-08 01:59 5.06179 -25.36466 36945 ft 493 kts 134°
2026-05-08 02:00 5.01487 -25.31456 36947 ft 493 kts 134°
2026-05-08 02:00 4.96792 -25.26442 36951 ft 493 kts 134°
2026-05-08 02:01 4.92096 -25.21428 36949 ft 493 kts 134°
2026-05-08 02:01 4.87431 -25.16447 36949 ft 493 kts 134°
2026-05-08 02:02 4.82727 -25.11426 36942 ft 493 kts 134°
2026-05-08 02:02 4.78035 -25.06418 36949 ft 491 kts 134°
2026-05-08 02:03 4.73351 -25.01420 36943 ft 492 kts 134°
2026-05-08 02:03 4.68693 -24.96452 36948 ft 492 kts 134°
2026-05-08 02:04 4.63999 -24.91446 36943 ft 492 kts 134°
2026-05-08 02:04 4.59318 -24.86454 36946 ft 492 kts 134°
2026-05-08 02:05 4.54633 -24.81460 36945 ft 491 kts 134°
2026-05-08 02:05 4.49951 -24.76470 36945 ft 491 kts 134°
2026-05-08 02:06 4.45265 -24.71476 36946 ft 491 kts 134°
2026-05-08 02:06 4.40577 -24.66482 36944 ft 493 kts 133°
2026-05-08 02:07 4.35919 -24.61520 36945 ft 491 kts 133°
2026-05-08 02:07 4.31228 -24.56524 36946 ft 491 kts 134°
2026-05-08 02:08 4.26549 -24.51541 36948 ft 491 kts 134°
2026-05-08 02:08 4.21861 -24.46551 36943 ft 491 kts 134°
2026-05-08 02:09 4.17201 -24.41590 36940 ft 492 kts 134°
2026-05-08 02:09 4.12505 -24.36588 36941 ft 492 kts 133°
2026-05-08 02:10 4.07815 -24.31595 36944 ft 492 kts 133°
2026-05-08 02:10 4.03118 -24.26603 36942 ft 491 kts 133°
2026-05-08 02:11 3.98429 -24.21618 36940 ft 492 kts 133°
2026-05-08 02:11 3.93730 -24.16623 36938 ft 492 kts 133°
2026-05-08 02:12 3.89055 -24.11652 36944 ft 493 kts 133°
2026-05-08 02:12 3.84350 -24.06650 36943 ft 492 kts 133°
2026-05-08 02:13 3.79652 -24.01657 36940 ft 492 kts 133°
2026-05-08 02:13 3.74957 -23.96667 36940 ft 492 kts 133°
2026-05-08 02:14 3.70292 -23.91710 36943 ft 492 kts 133°
2026-05-08 02:14 3.65592 -23.86717 36939 ft 493 kts 133°
2026-05-08 02:15 3.60886 -23.81719 36941 ft 493 kts 133°
2026-05-08 02:15 3.56179 -23.76720 36942 ft 492 kts 133°
2026-05-08 02:16 3.51486 -23.71736 36939 ft 491 kts 133°
2026-05-08 02:16 3.46790 -23.66749 36938 ft 492 kts 132°
2026-05-08 02:17 3.42118 -23.61786 36939 ft 493 kts 132°
2026-05-08 02:17 3.37407 -23.56789 36938 ft 493 kts 133°
2026-05-08 02:18 3.32699 -23.51796 36939 ft 493 kts 133°
2026-05-08 02:18 3.27995 -23.46805 36938 ft 493 kts 132°
2026-05-08 02:19 3.23292 -23.41816 36938 ft 492 kts 132°
2026-05-08 02:19 3.18586 -23.36825 36938 ft 493 kts 132°
2026-05-08 02:20 3.13868 -23.31820 36936 ft 494 kts 132°
2026-05-08 02:20 3.09152 -23.26820 36935 ft 494 kts 132°
2026-05-08 02:21 3.04431 -23.21814 36938 ft 494 kts 132°
2026-05-08 02:21 2.99716 -23.16816 36938 ft 494 kts 132°
2026-05-08 02:22 2.95005 -23.11822 36936 ft 494 kts 132°
2026-05-08 02:22 2.90322 -23.06859 36937 ft 494 kts 133°
2026-05-08 02:23 2.85592 -23.01847 36935 ft 495 kts 133°
2026-05-08 02:23 2.80854 -22.96827 36936 ft 495 kts 133°
2026-05-08 02:24 2.76127 -22.91819 36935 ft 495 kts 132°
2026-05-08 02:24 2.71400 -22.86812 36937 ft 495 kts 133°
2026-05-08 02:25 2.66696 -22.81829 36936 ft 495 kts 133°
2026-05-08 02:25 2.61960 -22.76814 36937 ft 496 kts 133°
2026-05-08 02:26 2.57222 -22.71789 36933 ft 496 kts 133°
2026-05-08 02:26 2.52477 -22.66768 36933 ft 496 kts 132°
2026-05-08 02:27 2.47729 -22.61745 36936 ft 496 kts 132°
2026-05-08 02:27 2.42978 -22.56718 36935 ft 497 kts 132°
2026-05-08 02:28 2.38261 -22.51725 36936 ft 497 kts 133°
2026-05-08 02:28 2.33512 -22.46700 36935 ft 497 kts 132°
2026-05-08 02:29 2.28765 -22.41676 36936 ft 497 kts 132°
2026-05-08 02:29 2.24021 -22.36657 36937 ft 496 kts 132°
2026-05-08 02:30 2.19277 -22.31638 36933 ft 496 kts 132°
2026-05-08 02:30 2.14536 -22.26622 36933 ft 496 kts 132°
2026-05-08 02:31 2.09790 -22.21602 36933 ft 496 kts 132°
2026-05-08 02:31 2.05076 -22.16616 36931 ft 496 kts 132°
2026-05-08 02:32 2.00331 -22.11598 36930 ft 496 kts 132°
2026-05-08 02:32 1.95588 -22.06582 36931 ft 496 kts 132°
2026-05-08 02:33 1.90846 -22.01567 36931 ft 496 kts 132°
2026-05-08 02:33 1.86101 -21.96551 36930 ft 496 kts 132°
2026-05-08 02:34 1.81375 -21.91554 36931 ft 496 kts 132°
2026-05-08 02:34 1.76630 -21.86538 36930 ft 496 kts 132°
2026-05-08 02:35 1.71885 -21.81514 36933 ft 497 kts 132°
2026-05-08 02:35 1.67127 -21.76484 36933 ft 498 kts 132°
2026-05-08 02:36 1.62365 -21.71457 36933 ft 498 kts 132°
2026-05-08 02:36 1.57626 -21.66453 36930 ft 498 kts 132°
2026-05-08 02:37 1.52857 -21.61414 36933 ft 498 kts 132°
2026-05-08 02:37 1.48900 -21.57232 36933 ft 498 kts 132°
2026-05-08 02:38 1.44133 -21.52195 36933 ft 498 kts 132°
2026-05-08 02:38 1.39368 -21.47161 36933 ft 498 kts 132°
2026-05-08 02:39 1.34634 -21.42160 36931 ft 498 kts 132°
2026-05-08 02:39 1.29854 -21.37111 36930 ft 499 kts 132°
2026-05-08 02:40 1.25089 -21.32077 36930 ft 499 kts 132°
2026-05-08 02:40 1.20323 -21.27043 36931 ft 499 kts 132°
2026-05-08 02:41 1.15555 -21.22006 36931 ft 499 kts 132°
2026-05-08 02:41 1.10786 -21.16970 36931 ft 499 kts 132°
2026-05-08 02:42 1.06044 -21.11962 36928 ft 499 kts 132°
2026-05-08 02:42 1.01264 -21.06913 36927 ft 499 kts 132°
2026-05-08 02:43 0.96480 -21.01862 36930 ft 500 kts 132°
2026-05-08 02:43 0.91703 -20.96818 36930 ft 500 kts 132°
2026-05-08 02:44 0.86927 -20.91774 36930 ft 500 kts 132°
2026-05-08 02:44 0.82146 -20.86726 36930 ft 500 kts 132°
2026-05-08 02:45 0.77400 -20.81715 36929 ft 500 kts 132°
2026-05-08 02:45 0.72591 -20.76638 36927 ft 499 kts 132°
2026-05-08 02:46 0.67850 -20.71632 36927 ft 499 kts 132°
2026-05-08 02:46 0.63067 -20.66583 36927 ft 499 kts 132°
2026-05-08 02:47 0.58289 -20.61538 36930 ft 499 kts 132°
2026-05-08 02:47 0.53509 -20.56492 36927 ft 499 kts 132°
2026-05-08 02:48 0.48729 -20.51447 36927 ft 500 kts 132°
2026-05-08 02:48 0.43977 -20.46430 36929 ft 500 kts 132°
2026-05-08 02:49 0.39208 -20.41390 36927 ft 498 kts 132°
2026-05-08 02:49 0.34445 -20.36363 36929 ft 498 kts 132°
2026-05-08 02:50 0.29676 -20.31332 36929 ft 499 kts 132°
2026-05-08 02:50 0.24903 -20.26295 36927 ft 499 kts 132°
2026-05-08 02:51 0.20125 -20.21253 36929 ft 499 kts 132°
2026-05-08 02:51 0.15351 -20.16214 36929 ft 499 kts 132°
2026-05-08 02:52 0.10609 -20.11207 36929 ft 498 kts 131°
2026-05-08 02:52 0.05850 -20.06180 36924 ft 498 kts 132°
2026-05-08 02:53 0.01101 -20.01142 36921 ft 497 kts 129°
2026-05-08 02:53 -0.03084 -19.95669 36925 ft 495 kts 124°
2026-05-08 02:54 -0.07076 -19.90063 36925 ft 495 kts 123°
2026-05-08 02:54 -0.11034 -19.84432 36926 ft 495 kts 123°
2026-05-08 02:55 -0.16979 -19.75998 36923 ft 494 kts 123°
2026-05-08 02:56 -0.20944 -19.70389 36925 ft 494 kts 123°
2026-05-08 02:56 -0.24884 -19.64818 36925 ft 494 kts 123°
2026-05-08 02:57 -0.28847 -19.59214 36924 ft 494 kts 123°
2026-05-08 02:57 -0.32814 -19.53603 36923 ft 493 kts 123°
2026-05-08 02:58 -0.36776 -19.48000 36925 ft 493 kts 123°
2026-05-08 02:58 -0.40731 -19.42403 36925 ft 491 kts 123°
2026-05-08 02:59 -0.44629 -19.36877 36920 ft 488 kts 123°
2026-05-08 02:59 -0.48553 -19.31333 36920 ft 488 kts 123°
2026-05-08 03:00 -0.52473 -19.25795 36921 ft 488 kts 123°
2026-05-08 03:00 -0.56395 -19.20250 36923 ft 488 kts 123°
2026-05-08 03:01 -0.60316 -19.14703 36919 ft 488 kts 123°
2026-05-08 03:01 -0.64216 -19.09186 36921 ft 488 kts 123°
2026-05-08 03:02 -0.68129 -19.03650 36920 ft 487 kts 123°
2026-05-08 03:02 -0.72046 -18.98109 36920 ft 487 kts 123°
2026-05-08 03:03 -0.75966 -18.92563 36918 ft 489 kts 123°
2026-05-08 03:03 -0.79867 -18.87044 36915 ft 490 kts 123°
2026-05-08 03:04 -0.83797 -18.81484 36913 ft 490 kts 123°
2026-05-08 03:04 -0.87731 -18.75918 36919 ft 490 kts 123°
2026-05-08 03:05 -0.91644 -18.70382 36918 ft 490 kts 123°
2026-05-08 03:05 -0.95572 -18.64823 36919 ft 489 kts 123°
2026-05-08 03:06 -0.99502 -18.59261 36917 ft 489 kts 123°
2026-05-08 03:06 -1.03431 -18.53702 36918 ft 489 kts 123°
2026-05-08 03:07 -1.07359 -18.48144 36917 ft 489 kts 123°
2026-05-08 03:07 -1.11289 -18.42580 36911 ft 490 kts 123°
2026-05-08 03:08 -1.15219 -18.37019 36914 ft 489 kts 123°
2026-05-08 03:08 -1.19140 -18.31469 36914 ft 489 kts 123°
2026-05-08 03:09 -1.23038 -18.25951 36916 ft 489 kts 123°
2026-05-08 03:09 -1.26965 -18.20392 36914 ft 489 kts 123°
2026-05-08 03:10 -1.30890 -18.14835 36915 ft 489 kts 123°
2026-05-08 03:10 -1.34813 -18.09281 36913 ft 489 kts 123°
2026-05-08 03:11 -1.38733 -18.03731 36912 ft 488 kts 123°
2026-05-08 03:11 -1.42623 -17.98223 36912 ft 487 kts 123°
2026-05-08 03:12 -1.46532 -17.92688 36915 ft 487 kts 123°
2026-05-08 03:12 -1.50447 -17.87142 36916 ft 488 kts 123°
2026-05-08 03:13 -1.54366 -17.81593 36914 ft 488 kts 123°
2026-05-08 03:13 -1.58285 -17.76042 36915 ft 488 kts 123°
2026-05-08 03:14 -1.62207 -17.70486 36912 ft 489 kts 123°
2026-05-08 03:14 -1.66128 -17.64933 36912 ft 489 kts 123°
2026-05-08 03:15 -1.70024 -17.59414 36916 ft 489 kts 123°
2026-05-08 03:15 -1.73946 -17.53856 36912 ft 489 kts 123°
2026-05-08 03:16 -1.77863 -17.48306 36908 ft 489 kts 123°
2026-05-08 03:16 -1.81783 -17.42752 36911 ft 489 kts 123°
2026-05-08 03:17 -1.85706 -17.37192 36911 ft 489 kts 123°
2026-05-08 03:17 -1.89632 -17.31627 36912 ft 489 kts 123°
2026-05-08 03:18 -1.93534 -17.26097 36909 ft 489 kts 123°
2026-05-08 03:18 -1.97458 -17.20535 36912 ft 489 kts 123°
2026-05-08 03:19 -2.01380 -17.14975 36912 ft 489 kts 123°
2026-05-08 03:19 -2.05308 -17.09405 36912 ft 489 kts 123°
2026-05-08 03:20 -2.09231 -17.03842 36909 ft 489 kts 123°
2026-05-08 03:20 -2.13151 -16.98284 36909 ft 489 kts 123°
2026-05-08 03:21 -2.17054 -16.92749 36907 ft 489 kts 123°
2026-05-08 03:21 -2.20977 -16.87185 36910 ft 489 kts 123°
2026-05-08 03:22 -2.24901 -16.81617 36910 ft 490 kts 123°
2026-05-08 03:22 -2.28834 -16.76038 36907 ft 490 kts 123°
2026-05-08 03:23 -2.32766 -16.70460 36902 ft 490 kts 123°
2026-05-08 03:23 -2.36695 -16.64884 36912 ft 490 kts 123°
2026-05-08 03:24 -2.40598 -16.59345 36896 ft 490 kts 123°
2026-05-08 03:24 -2.44531 -16.53763 36915 ft 490 kts 123°
2026-05-08 03:25 -2.48459 -16.48186 36909 ft 490 kts 123°
2026-05-08 03:25 -2.51729 -16.43545 36895 ft 490 kts 123°
2026-05-08 03:26 -2.55657 -16.37967 36916 ft 490 kts 123°
2026-05-08 03:26 -2.59586 -16.32388 36901 ft 490 kts 123°
2026-05-08 03:27 -2.63511 -16.26814 36897 ft 490 kts 123°
2026-05-08 03:27 -2.67430 -16.21248 36913 ft 490 kts 123°
2026-05-08 03:28 -2.71355 -16.15672 36914 ft 489 kts 123°
2026-05-08 03:28 -2.75253 -16.10134 36898 ft 490 kts 123°
2026-05-08 03:29 -2.79175 -16.04562 36912 ft 490 kts 123°
2026-05-08 03:29 -2.83099 -15.98985 36912 ft 490 kts 123°
2026-05-08 03:30 -2.88992 -15.90609 36912 ft 491 kts 123°
2026-05-08 03:31 -2.96846 -15.79444 36917 ft 491 kts 124°
2026-05-08 03:32 -3.02752 -15.71045 36904 ft 491 kts 123°
2026-05-08 03:32 -3.06687 -15.65448 36919 ft 491 kts 123°
2026-05-08 03:33 -3.10622 -15.59851 36909 ft 492 kts 123°
2026-05-08 03:33 -3.14533 -15.54287 36912 ft 492 kts 123°
2026-05-08 03:34 -3.18476 -15.48676 36900 ft 492 kts 124°
2026-05-08 03:34 -3.22414 -15.43071 36918 ft 492 kts 123°
2026-05-08 03:35 -3.26357 -15.37459 36915 ft 492 kts 123°
2026-05-08 03:35 -3.30267 -15.31893 36896 ft 492 kts 124°
2026-05-08 03:36 -3.34204 -15.26287 36916 ft 492 kts 124°
2026-05-08 03:36 -3.38142 -15.20680 36920 ft 491 kts 123°
2026-05-08 03:37 -3.42077 -15.15075 36901 ft 492 kts 124°
2026-05-08 03:37 -3.46008 -15.09475 36917 ft 492 kts 124°
2026-05-08 03:38 -3.49941 -15.03871 36921 ft 491 kts 123°
2026-05-08 03:38 -3.53871 -14.98272 36905 ft 492 kts 124°
2026-05-08 03:39 -3.57803 -14.92666 36900 ft 492 kts 124°
2026-05-08 03:39 -3.61739 -14.87056 36918 ft 493 kts 123°
2026-05-08 03:40 -3.65677 -14.81441 36920 ft 493 kts 124°
2026-05-08 03:40 -3.69599 -14.75849 36907 ft 493 kts 124°
2026-05-08 03:41 -3.73534 -14.70237 36901 ft 492 kts 124°
2026-05-08 03:41 -3.77470 -14.64622 36920 ft 492 kts 124°
2026-05-08 03:42 -3.81406 -14.59007 36905 ft 493 kts 124°
2026-05-08 03:42 -3.85340 -14.53384 36921 ft 493 kts 123°
2026-05-08 03:43 -3.89282 -14.47751 36921 ft 494 kts 123°
2026-05-08 03:43 -3.93237 -14.42115 36902 ft 494 kts 123°
2026-05-08 03:44 -3.97159 -14.36519 36901 ft 494 kts 123°
2026-05-08 03:44 -4.01110 -14.30879 36921 ft 494 kts 123°
2026-05-08 03:45 -4.05064 -14.25230 36922 ft 494 kts 123°
2026-05-08 03:45 -4.09011 -14.19591 36903 ft 494 kts 123°
2026-05-08 03:46 -4.12956 -14.13955 36917 ft 494 kts 123°
2026-05-08 03:46 -4.16873 -14.08357 36922 ft 494 kts 123°
2026-05-08 03:47 -4.20815 -14.02720 36902 ft 494 kts 123°
2026-05-08 03:47 -4.24758 -13.97083 36919 ft 494 kts 123°
2026-05-08 03:48 -4.28700 -13.91445 36919 ft 493 kts 123°
2026-05-08 03:48 -4.32642 -13.85807 36902 ft 493 kts 123°
2026-05-08 03:49 -4.36560 -13.80201 36920 ft 495 kts 123°
2026-05-08 03:49 -4.40508 -13.74550 36921 ft 495 kts 123°
2026-05-08 03:50 -4.44459 -13.68895 36898 ft 495 kts 123°
2026-05-08 03:50 -4.48410 -13.63240 36914 ft 495 kts 123°
2026-05-08 03:51 -4.52355 -13.57592 36913 ft 494 kts 123°
2026-05-08 03:51 -4.56298 -13.51943 36913 ft 494 kts 124°
2026-05-08 03:52 -4.60236 -13.46302 36918 ft 495 kts 123°
2026-05-08 03:52 -4.64162 -13.40677 36916 ft 495 kts 123°
2026-05-08 03:53 -4.68114 -13.35012 36918 ft 495 kts 124°
2026-05-08 03:53 -4.72064 -13.29349 36916 ft 495 kts 124°
2026-05-08 03:54 -4.76013 -13.23687 36914 ft 495 kts 123°
2026-05-08 03:54 -4.79963 -13.18023 36917 ft 495 kts 124°
2026-05-08 03:55 -4.83888 -13.12392 36917 ft 495 kts 123°
2026-05-08 03:55 -4.87840 -13.06722 36916 ft 496 kts 123°
2026-05-08 03:56 -4.91789 -13.01054 36913 ft 496 kts 123°
2026-05-08 03:56 -4.95745 -12.95374 36910 ft 496 kts 123°
2026-05-08 03:57 -4.99700 -12.89696 36913 ft 496 kts 123°
2026-05-08 03:57 -5.03625 -12.84058 36913 ft 496 kts 123°
2026-05-08 03:58 -5.07574 -12.78386 36914 ft 496 kts 123°
2026-05-08 03:58 -5.11520 -12.72715 36912 ft 496 kts 123°
2026-05-08 03:59 -5.15470 -12.67038 36914 ft 496 kts 123°
2026-05-08 03:59 -5.19421 -12.61357 36912 ft 496 kts 123°
2026-05-08 04:00 -5.23342 -12.55718 36917 ft 495 kts 123°
2026-05-08 04:00 -5.27279 -12.50056 36921 ft 494 kts 123°
2026-05-08 04:01 -5.31210 -12.44399 36914 ft 494 kts 123°
2026-05-08 04:01 -5.35146 -12.38735 36911 ft 494 kts 123°
2026-05-08 04:02 -5.39082 -12.33058 36918 ft 496 kts 123°
2026-05-08 04:02 -5.43033 -12.27373 36918 ft 497 kts 123°
2026-05-08 04:03 -5.46989 -12.21681 36911 ft 497 kts 123°
2026-05-08 04:03 -5.52895 -12.13174 36918 ft 497 kts 123°
2026-05-08 04:04 -5.56844 -12.07482 36916 ft 497 kts 123°
2026-05-08 04:04 -5.60791 -12.01788 36917 ft 496 kts 123°
2026-05-08 04:05 -5.64730 -11.96098 36921 ft 495 kts 123°
2026-05-08 04:05 -5.68664 -11.90429 36923 ft 495 kts 123°
2026-05-08 04:06 -5.72581 -11.84784 36917 ft 495 kts 123°
2026-05-08 04:06 -5.76510 -11.79114 36916 ft 495 kts 123°
2026-05-08 04:07 -5.80440 -11.73441 36917 ft 495 kts 123°
2026-05-08 04:07 -5.84371 -11.67765 36921 ft 495 kts 123°
2026-05-08 04:08 -5.88302 -11.62086 36919 ft 494 kts 123°
2026-05-08 04:08 -5.92230 -11.56410 36921 ft 495 kts 123°
2026-05-08 04:09 -5.96159 -11.50731 36918 ft 495 kts 123°
2026-05-08 04:09 -6.00087 -11.45052 36921 ft 494 kts 123°
2026-05-08 04:10 -6.03987 -11.39413 36923 ft 495 kts 123°
2026-05-08 04:10 -6.07920 -11.33723 36921 ft 495 kts 123°
2026-05-08 04:11 -6.11847 -11.28041 36917 ft 495 kts 123°
2026-05-08 04:11 -6.15776 -11.22354 36922 ft 495 kts 124°
2026-05-08 04:12 -6.19704 -11.16667 36922 ft 495 kts 123°
2026-05-08 04:12 -6.23602 -11.11021 36923 ft 494 kts 123°
2026-05-08 04:13 -6.27529 -11.05332 36928 ft 495 kts 123°
2026-05-08 04:13 -6.31449 -10.99651 36929 ft 495 kts 123°
2026-05-08 04:14 -6.35367 -10.93972 36922 ft 494 kts 123°
2026-05-08 04:14 -6.39294 -10.88273 36925 ft 496 kts 123°
2026-05-08 04:15 -6.42562 -10.83533 36927 ft 496 kts 123°
2026-05-08 04:15 -6.46496 -10.77828 36927 ft 496 kts 123°
2026-05-08 04:16 -6.50432 -10.72116 36926 ft 496 kts 123°
2026-05-08 04:16 -6.54370 -10.66399 36927 ft 496 kts 123°
2026-05-08 04:17 -6.58278 -10.60723 36929 ft 496 kts 123°
2026-05-08 04:17 -6.62207 -10.55015 36926 ft 496 kts 123°
2026-05-08 04:18 -6.66138 -10.49302 36929 ft 496 kts 123°
2026-05-08 04:18 -6.70070 -10.43585 36929 ft 496 kts 124°
2026-05-08 04:19 -6.73972 -10.37911 36926 ft 496 kts 123°
2026-05-08 04:19 -6.77899 -10.32191 36930 ft 497 kts 123°
2026-05-08 04:20 -6.81837 -10.26463 36929 ft 497 kts 124°
2026-05-08 04:20 -6.85774 -10.20736 36929 ft 497 kts 124°
2026-05-08 04:21 -6.89711 -10.14999 36934 ft 496 kts 124°
2026-05-08 04:21 -6.93615 -10.09315 36934 ft 496 kts 124°
2026-05-08 04:22 -6.97534 -10.03606 36933 ft 496 kts 123°
2026-05-08 04:22 -7.01485 -9.97914 37158 ft 495 kts 126°
2026-05-08 04:23 -7.03613 -9.95198 37402 ft 493 kts 129°
2026-05-08 04:23 -7.05819 -9.92549 37637 ft 492 kts 130°
2026-05-08 04:23 -7.08044 -9.89924 37806 ft 492 kts 129°
2026-05-08 04:23 -7.10263 -9.87296 37969 ft 491 kts 129°
2026-05-08 04:24 -7.12461 -9.84663 38130 ft 491 kts 129°
2026-05-08 04:24 -7.14648 -9.82014 38255 ft 492 kts 128°
2026-05-08 04:24 -7.16820 -9.79361 38393 ft 491 kts 128°
2026-05-08 04:24 -7.18989 -9.76697 38532 ft 491 kts 128°
2026-05-08 04:25 -7.21152 -9.74035 38681 ft 490 kts 128°
2026-05-08 04:25 -7.23309 -9.71378 38809 ft 490 kts 128°
2026-05-08 04:25 -7.27632 -9.66054 38935 ft 492 kts 128°
2026-05-08 04:26 -7.31950 -9.60738 38935 ft 494 kts 128°
2026-05-08 04:26 -7.36299 -9.55386 38940 ft 493 kts 128°
2026-05-08 04:27 -7.40646 -9.50034 38937 ft 493 kts 128°
2026-05-08 04:27 -7.44988 -9.44686 38937 ft 493 kts 128°
2026-05-08 04:28 -7.49328 -9.39339 38935 ft 492 kts 128°
2026-05-08 04:28 -7.53664 -9.33985 38938 ft 493 kts 128°
2026-05-08 04:29 -7.58007 -9.28622 38942 ft 493 kts 129°
2026-05-08 04:29 -7.62345 -9.23280 38942 ft 493 kts 128°
2026-05-08 04:30 -7.66657 -9.17965 38942 ft 493 kts 128°
2026-05-08 04:30 -7.70998 -9.12610 38942 ft 492 kts 128°
2026-05-08 04:31 -7.75332 -9.07258 38949 ft 493 kts 128°
2026-05-08 04:31 -7.79684 -9.01881 38944 ft 494 kts 129°
2026-05-08 04:32 -7.84002 -8.96546 38939 ft 494 kts 129°
2026-05-08 04:32 -7.88350 -8.91172 38951 ft 494 kts 128°
2026-05-08 04:33 -7.92693 -8.85801 38953 ft 494 kts 128°
2026-05-08 04:33 -7.97047 -8.80416 38937 ft 494 kts 128°
2026-05-08 04:34 -8.01394 -8.75036 38948 ft 494 kts 128°
2026-05-08 04:34 -8.05738 -8.69658 38951 ft 494 kts 128°
2026-05-08 04:35 -8.10064 -8.64297 38941 ft 497 kts 128°
2026-05-08 04:35 -8.14433 -8.58887 38947 ft 497 kts 128°
2026-05-08 04:36 -8.18798 -8.53479 38955 ft 496 kts 128°
2026-05-08 04:36 -8.23161 -8.48069 38954 ft 497 kts 128°
2026-05-08 04:37 -8.27537 -8.42641 38946 ft 497 kts 129°
2026-05-08 04:37 -8.31866 -8.37271 38957 ft 495 kts 129°
2026-05-08 04:38 -8.36214 -8.31874 38947 ft 495 kts 128°
2026-05-08 04:38 -8.40568 -8.26467 38964 ft 497 kts 128°
2026-05-08 04:39 -8.44929 -8.21050 38957 ft 496 kts 128°
2026-05-08 04:39 -8.49285 -8.15637 38953 ft 496 kts 128°
2026-05-08 04:40 -8.53646 -8.10215 38953 ft 496 kts 128°
2026-05-08 04:40 -8.57999 -8.04801 38953 ft 497 kts 128°
2026-05-08 04:41 -8.62325 -7.99418 38950 ft 496 kts 128°
2026-05-08 04:41 -8.66673 -7.94006 38951 ft 497 kts 129°
2026-05-08 04:42 -8.71055 -7.88548 38956 ft 502 kts 129°
2026-05-08 04:42 -8.75455 -7.83068 38956 ft 501 kts 129°
2026-05-08 04:43 -8.79844 -7.77598 38970 ft 500 kts 129°
2026-05-08 04:43 -8.84227 -7.72133 38954 ft 501 kts 129°
2026-05-08 04:44 -8.88617 -7.66657 38967 ft 502 kts 129°
2026-05-08 04:44 -8.93012 -7.61172 38959 ft 501 kts 129°
2026-05-08 04:45 -8.97373 -7.55728 38958 ft 499 kts 128°
2026-05-08 04:45 -9.01736 -7.50278 38960 ft 499 kts 128°
2026-05-08 04:46 -9.06122 -7.44791 38959 ft 503 kts 128°
2026-05-08 04:46 -9.10534 -7.39276 38959 ft 503 kts 129°
2026-05-08 04:47 -9.14934 -7.33780 38974 ft 503 kts 128°
2026-05-08 04:47 -9.19312 -7.28305 38960 ft 504 kts 128°
2026-05-08 04:48 -9.23726 -7.22781 38971 ft 504 kts 128°
2026-05-08 04:48 -9.28123 -7.17268 38958 ft 501 kts 128°
2026-05-08 04:49 -9.32518 -7.11755 38965 ft 503 kts 129°
2026-05-08 04:49 -9.36930 -7.06233 38973 ft 505 kts 129°
2026-05-08 04:50 -9.41336 -7.00713 38968 ft 504 kts 129°
2026-05-08 04:50 -9.45744 -6.95173 38969 ft 506 kts 129°
2026-05-08 04:51 -9.50142 -6.89660 38970 ft 507 kts 129°
2026-05-08 04:51 -9.54581 -6.84092 38966 ft 507 kts 129°
2026-05-08 04:52 -9.59003 -6.78540 38969 ft 506 kts 129°
2026-05-08 04:52 -9.63433 -6.72973 38972 ft 506 kts 129°
2026-05-08 04:53 -9.67830 -6.67445 38973 ft 507 kts 129°
2026-05-08 04:53 -9.72255 -6.61878 38979 ft 506 kts 129°
2026-05-08 04:54 -9.76678 -6.56312 38968 ft 506 kts 129°
2026-05-08 04:54 -9.81091 -6.50745 38973 ft 508 kts 129°
2026-05-08 04:55 -9.85524 -6.45160 38972 ft 508 kts 129°
2026-05-08 04:55 -9.89961 -6.39576 38974 ft 508 kts 129°
2026-05-08 04:56 -9.94365 -6.34028 38976 ft 508 kts 129°
2026-05-08 04:56 -9.98796 -6.28439 38976 ft 509 kts 129°
2026-05-08 04:57 -10.03227 -6.22846 38977 ft 508 kts 129°
2026-05-08 04:57 -10.07654 -6.17256 38980 ft 508 kts 129°
2026-05-08 04:58 -10.12085 -6.11659 38980 ft 508 kts 129°
2026-05-08 04:58 -10.16509 -6.06066 38980 ft 508 kts 129°
2026-05-08 04:59 -10.20937 -6.00457 38979 ft 508 kts 129°
2026-05-08 04:59 -10.25364 -5.94858 38980 ft 508 kts 130°
2026-05-08 05:00 -10.29768 -5.89291 38983 ft 509 kts 129°
2026-05-08 05:00 -10.34200 -5.83681 38981 ft 509 kts 129°
2026-05-08 05:01 -10.38622 -5.78078 38981 ft 508 kts 129°
2026-05-08 05:01 -10.43053 -5.72461 38981 ft 509 kts 129°
2026-05-08 05:02 -10.47479 -5.66848 38980 ft 509 kts 129°
2026-05-08 05:02 -10.51156 -5.62181 38979 ft 508 kts 129°
2026-05-08 05:03 -10.55576 -5.56570 38979 ft 509 kts 130°
2026-05-08 05:03 -10.60005 -5.50945 38979 ft 509 kts 130°
2026-05-08 05:04 -10.64435 -5.45316 38979 ft 509 kts 130°
2026-05-08 05:04 -10.68865 -5.39683 38984 ft 509 kts 129°
2026-05-08 05:05 -10.73292 -5.34051 38989 ft 509 kts 129°
2026-05-08 05:05 -10.77687 -5.28457 38988 ft 509 kts 130°
2026-05-08 05:06 -10.82115 -5.22819 38986 ft 509 kts 130°
2026-05-08 05:06 -10.86539 -5.17181 38987 ft 510 kts 130°
2026-05-08 05:07 -10.90963 -5.11542 38988 ft 510 kts 130°
2026-05-08 05:07 -10.95371 -5.05920 38987 ft 511 kts 130°
2026-05-08 05:08 -10.99756 -5.00206 38987 ft 512 kts 125°
2026-05-08 05:08 -11.03648 -4.94130 38986 ft 513 kts 123°
2026-05-08 05:09 -11.07444 -4.87968 38988 ft 513 kts 123°
2026-05-08 05:09 -11.11215 -4.81801 38990 ft 513 kts 123°
2026-05-08 05:10 -11.16883 -4.72554 38993 ft 513 kts 123°
2026-05-08 05:11 -11.20667 -4.66390 38993 ft 513 kts 123°
2026-05-08 05:11 -11.24425 -4.60266 38992 ft 513 kts 123°
2026-05-08 05:12 -11.28205 -4.54101 38996 ft 513 kts 123°
2026-05-08 05:12 -11.31996 -4.47916 38993 ft 514 kts 123°
2026-05-08 05:13 -11.35794 -4.41715 38992 ft 515 kts 123°
2026-05-08 05:13 -11.39582 -4.35526 38993 ft 515 kts 123°
2026-05-08 05:14 -11.43372 -4.29328 38993 ft 515 kts 123°
2026-05-08 05:14 -11.47161 -4.23130 38993 ft 515 kts 123°
2026-05-08 05:15 -11.50950 -4.16928 38994 ft 515 kts 123°
2026-05-08 05:15 -11.54717 -4.10759 38993 ft 515 kts 123°
2026-05-08 05:16 -11.58500 -4.04559 38998 ft 515 kts 123°
2026-05-08 05:16 -11.62284 -3.98353 38997 ft 515 kts 123°
2026-05-08 05:17 -11.66070 -3.92141 38997 ft 515 kts 123°
2026-05-08 05:17 -11.69849 -3.85936 38997 ft 515 kts 123°
2026-05-08 05:18 -11.73630 -3.79723 38986 ft 515 kts 123°
2026-05-08 05:18 -11.77390 -3.73542 38986 ft 515 kts 123°
2026-05-08 05:19 -11.81169 -3.67325 38991 ft 515 kts 123°
2026-05-08 05:19 -11.84945 -3.61110 38991 ft 515 kts 123°
2026-05-08 05:20 -11.88724 -3.54885 38990 ft 515 kts 123°
2026-05-08 05:20 -11.92504 -3.48655 38994 ft 515 kts 123°
2026-05-08 05:21 -11.96279 -3.42429 39007 ft 515 kts 123°
2026-05-08 05:21 -12.00056 -3.36196 38992 ft 515 kts 123°
2026-05-08 05:22 -12.03802 -3.30009 38997 ft 515 kts 123°
2026-05-08 05:22 -12.07583 -3.23762 38999 ft 516 kts 123°
2026-05-08 05:23 -12.11358 -3.17521 38999 ft 516 kts 123°
2026-05-08 05:23 -12.15132 -3.11276 38999 ft 516 kts 123°
2026-05-08 05:24 -12.18902 -3.05033 38998 ft 516 kts 123°
2026-05-08 05:24 -12.22673 -2.98786 38999 ft 516 kts 123°
2026-05-08 05:25 -12.26448 -2.92529 39008 ft 516 kts 123°
2026-05-08 05:25 -12.30190 -2.86321 38995 ft 516 kts 123°
2026-05-08 05:26 -12.33960 -2.80062 38996 ft 516 kts 123°
2026-05-08 05:26 -12.37726 -2.73805 39012 ft 516 kts 123°
2026-05-08 05:27 -12.41490 -2.67549 38999 ft 516 kts 123°
2026-05-08 05:27 -12.45257 -2.61284 38999 ft 517 kts 123°
2026-05-08 05:28 -12.49025 -2.55012 39001 ft 517 kts 123°
2026-05-08 05:28 -12.52788 -2.48745 39002 ft 517 kts 123°
2026-05-08 05:29 -12.56531 -2.42506 39002 ft 517 kts 123°
2026-05-08 05:29 -12.60294 -2.36229 39001 ft 517 kts 123°
2026-05-08 05:30 -12.64059 -2.29946 39006 ft 517 kts 123°
2026-05-08 05:30 -12.67820 -2.23664 39007 ft 517 kts 123°
2026-05-08 05:31 -12.71585 -2.17372 39006 ft 518 kts 123°
2026-05-08 05:31 -12.75345 -2.11082 39006 ft 517 kts 123°
2026-05-08 05:32 -12.79080 -2.04831 39008 ft 517 kts 123°
2026-05-08 05:32 -12.82836 -1.98541 39007 ft 517 kts 123°
2026-05-08 05:33 -12.86592 -1.92247 39005 ft 517 kts 123°
2026-05-08 05:33 -12.90343 -1.85956 39007 ft 517 kts 123°
2026-05-08 05:34 -12.94097 -1.79656 39011 ft 518 kts 123°
2026-05-08 05:34 -12.97853 -1.73348 39009 ft 518 kts 123°
2026-05-08 05:35 -13.01603 -1.67045 39008 ft 518 kts 123°
2026-05-08 05:35 -13.05334 -1.60771 39010 ft 518 kts 123°
2026-05-08 05:36 -13.09085 -1.54458 39009 ft 518 kts 123°
2026-05-08 05:36 -13.12833 -1.48144 39007 ft 518 kts 123°
2026-05-08 05:37 -13.16578 -1.41833 39008 ft 518 kts 123°
2026-05-08 05:37 -13.20301 -1.35554 39010 ft 518 kts 123°
2026-05-08 05:38 -13.24049 -1.29227 39009 ft 518 kts 123°
2026-05-08 05:38 -13.27793 -1.22903 39009 ft 518 kts 123°
2026-05-08 05:39 -13.31518 -1.16606 39008 ft 518 kts 123°
2026-05-08 05:39 -13.35256 -1.10283 39015 ft 518 kts 123°
2026-05-08 05:40 -13.38998 -1.03949 39017 ft 518 kts 123°
2026-05-08 05:40 -13.42740 -0.97610 39017 ft 518 kts 123°
2026-05-08 05:41 -13.46477 -0.91275 39018 ft 518 kts 123°
2026-05-08 05:41 -13.50189 -0.84977 39025 ft 518 kts 123°
2026-05-08 05:42 -13.53921 -0.78641 39016 ft 518 kts 123°
2026-05-08 05:42 -13.57648 -0.72308 39018 ft 518 kts 123°
2026-05-08 05:43 -13.61380 -0.65964 39021 ft 518 kts 123°
2026-05-08 05:43 -13.65111 -0.59615 39021 ft 518 kts 123°
2026-05-08 05:44 -13.68842 -0.53263 39019 ft 518 kts 123°
2026-05-08 05:44 -13.72548 -0.46947 39021 ft 518 kts 123°
2026-05-08 05:45 -13.76274 -0.40592 39020 ft 518 kts 123°
2026-05-08 05:45 -13.79995 -0.34241 39019 ft 518 kts 123°
2026-05-08 05:46 -13.83660 -0.27983 39021 ft 518 kts 123°
2026-05-08 05:46 -13.87377 -0.21628 39022 ft 518 kts 123°
2026-05-08 05:47 -13.91092 -0.15274 39020 ft 518 kts 123°
2026-05-08 05:47 -13.94803 -0.08921 39023 ft 518 kts 123°
2026-05-08 05:48 -13.98511 -0.02568 39024 ft 518 kts 123°
2026-05-08 05:48 -14.01701 0.04094 39023 ft 520 kts 115°
2026-05-08 05:49 -14.04574 0.10929 39024 ft 520 kts 114°
2026-05-08 05:49 -14.07394 0.17797 39023 ft 520 kts 114°
2026-05-08 05:50 -14.10214 0.24660 39024 ft 520 kts 114°
2026-05-08 05:50 -14.12564 0.30364 39023 ft 520 kts 114°
2026-05-08 05:51 -14.15396 0.37227 39024 ft 520 kts 114°
2026-05-08 05:51 -14.18228 0.44097 39026 ft 521 kts 114°
2026-05-08 05:52 -14.21059 0.50971 39026 ft 521 kts 114°
2026-05-08 05:52 -14.23887 0.57846 39026 ft 521 kts 114°
2026-05-08 05:53 -14.26715 0.64727 39026 ft 521 kts 114°
2026-05-08 05:53 -14.29542 0.71611 39026 ft 521 kts 114°
2026-05-08 05:54 -14.32366 0.78497 39026 ft 521 kts 114°
2026-05-08 05:54 -14.35191 0.85389 39026 ft 522 kts 114°
2026-05-08 05:55 -14.38014 0.92283 39020 ft 522 kts 114°
2026-05-08 05:55 -14.40836 0.99182 39022 ft 522 kts 114°
2026-05-08 05:56 -14.43654 1.06079 39024 ft 522 kts 114°
2026-05-08 05:56 -14.46452 1.12934 39023 ft 522 kts 114°
2026-05-08 05:57 -14.49269 1.19840 39023 ft 522 kts 114°
2026-05-08 05:57 -14.52086 1.26754 39026 ft 523 kts 114°
2026-05-08 05:58 -14.54902 1.33671 39023 ft 523 kts 114°
2026-05-08 05:58 -14.57716 1.40592 39028 ft 523 kts 114°
2026-05-08 05:59 -14.60531 1.47519 39026 ft 524 kts 114°
2026-05-08 05:59 -14.63346 1.54455 39027 ft 524 kts 114°
2026-05-08 06:00 -14.66160 1.61396 39029 ft 524 kts 114°
2026-05-08 06:00 -14.68973 1.68340 39031 ft 524 kts 114°
2026-05-08 06:01 -14.71784 1.75288 39031 ft 524 kts 114°
2026-05-08 06:01 -14.74594 1.82238 39028 ft 524 kts 114°
2026-05-08 06:02 -14.77400 1.89187 39028 ft 524 kts 114°
2026-05-08 06:02 -14.80205 1.96139 39028 ft 524 kts 114°
2026-05-08 06:03 -14.83009 2.03097 39029 ft 524 kts 114°
2026-05-08 06:03 -14.85810 2.10054 39028 ft 524 kts 114°
2026-05-08 06:04 -14.88610 2.17014 39026 ft 524 kts 114°
2026-05-08 06:04 -14.91407 2.23974 39029 ft 524 kts 114°
2026-05-08 06:05 -14.94203 2.30939 39030 ft 524 kts 115°
2026-05-08 06:05 -14.96999 2.37910 39028 ft 525 kts 115°
2026-05-08 06:06 -14.99794 2.44889 39031 ft 525 kts 114°
2026-05-08 06:06 -15.02568 2.51820 39032 ft 525 kts 114°
2026-05-08 06:07 -15.05289 2.58627 39029 ft 525 kts 114°
2026-05-08 06:07 -15.07718 2.64707 39032 ft 525 kts 114°
2026-05-08 06:08 -15.10504 2.71689 39031 ft 525 kts 114°
2026-05-08 06:08 -15.13288 2.78673 39032 ft 525 kts 114°
2026-05-08 06:09 -15.16070 2.85659 39031 ft 525 kts 114°
2026-05-08 06:09 -15.18848 2.92642 39031 ft 525 kts 114°
2026-05-08 06:10 -15.21623 2.99627 39034 ft 525 kts 114°
2026-05-08 06:10 -15.24397 3.06614 39034 ft 525 kts 114°
2026-05-08 06:11 -15.27170 3.13606 39037 ft 525 kts 114°
2026-05-08 06:11 -15.29938 3.20594 39031 ft 525 kts 114°
2026-05-08 06:12 -15.32705 3.27585 39034 ft 525 kts 114°
2026-05-08 06:12 -15.35470 3.34579 39034 ft 525 kts 114°
2026-05-08 06:13 -15.38233 3.41575 39034 ft 525 kts 114°
2026-05-08 06:13 -15.40993 3.48572 39034 ft 525 kts 114°
2026-05-08 06:14 -15.43751 3.55573 39034 ft 525 kts 114°
2026-05-08 06:14 -15.46508 3.62574 39034 ft 525 kts 114°
2026-05-08 06:15 -15.49243 3.69530 39034 ft 525 kts 114°
2026-05-08 06:15 -15.51995 3.76536 39034 ft 525 kts 114°
2026-05-08 06:16 -15.54744 3.83542 39031 ft 525 kts 114°
2026-05-08 06:16 -15.57492 3.90553 39031 ft 525 kts 114°
2026-05-08 06:17 -15.61611 4.01076 39035 ft 525 kts 114°
2026-05-08 06:17 -15.64361 4.08109 39031 ft 527 kts 114°
2026-05-08 06:18 -15.67112 4.15155 39034 ft 527 kts 114°
2026-05-08 06:18 -15.69862 4.22206 39034 ft 527 kts 114°
2026-05-08 06:19 -15.72609 4.29255 39037 ft 527 kts 114°
2026-05-08 06:19 -15.75355 4.36310 39037 ft 527 kts 114°
2026-05-08 06:20 -15.78096 4.43362 39037 ft 527 kts 114°
2026-05-08 06:20 -15.80838 4.50421 39037 ft 527 kts 114°
2026-05-08 06:21 -15.83577 4.57481 39037 ft 527 kts 114°
2026-05-08 06:21 -15.86313 4.64541 39037 ft 527 kts 114°
2026-05-08 06:22 -15.89044 4.71599 39037 ft 527 kts 114°
2026-05-08 06:22 -15.91774 4.78659 39034 ft 527 kts 114°
2026-05-08 06:23 -15.94502 4.85721 39042 ft 527 kts 114°
2026-05-08 06:23 -15.97229 4.92791 39037 ft 528 kts 114°
2026-05-08 06:24 -15.99959 4.99874 39037 ft 528 kts 114°
2026-05-08 06:24 -16.02882 5.06864 39036 ft 526 kts 118°
2026-05-08 06:25 -16.06020 5.13740 39038 ft 526 kts 118°
2026-05-08 06:25 -16.09144 5.20625 39038 ft 527 kts 118°
2026-05-08 06:26 -16.12226 5.27539 39036 ft 527 kts 117°
2026-05-08 06:26 -16.15288 5.34462 39038 ft 527 kts 117°
2026-05-08 06:27 -16.18343 5.41387 39038 ft 527 kts 117°
2026-05-08 06:27 -16.21398 5.48312 39037 ft 526 kts 117°
2026-05-08 06:28 -16.24431 5.55189 39035 ft 526 kts 117°
2026-05-08 06:28 -16.27481 5.62114 39050 ft 526 kts 117°
2026-05-08 06:29 -16.30530 5.69043 39036 ft 526 kts 117°
2026-05-08 06:29 -16.33576 5.75975 39034 ft 526 kts 117°
2026-05-08 06:30 -16.36620 5.82906 39034 ft 526 kts 117°
2026-05-08 06:30 -16.39660 5.89837 39036 ft 526 kts 117°
2026-05-08 06:31 -16.42699 5.96772 39035 ft 526 kts 117°
2026-05-08 06:31 -16.45735 6.03710 39034 ft 526 kts 117°
2026-05-08 06:32 -16.48766 6.10643 39034 ft 526 kts 117°
2026-05-08 06:32 -16.51800 6.17589 39031 ft 526 kts 117°
2026-05-08 06:33 -16.54829 6.24532 39031 ft 526 kts 117°
2026-05-08 06:33 -16.57858 6.31481 39031 ft 526 kts 117°
2026-05-08 06:34 -16.60881 6.38425 39037 ft 526 kts 117°
2026-05-08 06:34 -16.62862 6.42981 39031 ft 526 kts 117°
2026-05-08 06:35 -16.65861 6.49882 39033 ft 526 kts 117°
2026-05-08 06:35 -16.68879 6.56834 39031 ft 526 kts 117°
2026-05-08 06:36 -16.71895 6.63789 39032 ft 526 kts 117°
2026-05-08 06:36 -16.74909 6.70747 39029 ft 526 kts 117°
2026-05-08 06:37 -16.77919 6.77702 39031 ft 526 kts 117°
2026-05-08 06:37 -16.80929 6.84666 39031 ft 526 kts 117°
2026-05-08 06:38 -16.83937 6.91634 39031 ft 526 kts 117°
2026-05-08 06:38 -16.86437 6.97431 39031 ft 526 kts 117°
2026-05-08 06:39 -16.89440 7.04401 39031 ft 526 kts 117°
2026-05-08 06:39 -16.90263 7.06312 39031 ft 526 kts 117°
2026-05-08 06:40 -16.93097 7.12899 39043 ft 526 kts 117°
2026-05-08 06:40 -16.95554 7.18613 39028 ft 526 kts 117°
2026-05-08 06:41 -16.96470 7.20747 39028 ft 525 kts 117°
2026-05-08 06:41 -16.99459 7.27709 39028 ft 525 kts 117°
2026-05-08 06:42 -17.02301 7.34337 39031 ft 525 kts 117°
2026-05-08 06:42 -17.05287 7.41308 39031 ft 525 kts 117°
2026-05-08 06:43 -17.08268 7.48274 39034 ft 525 kts 117°
2026-05-08 06:43 -17.11247 7.55244 39031 ft 525 kts 117°
2026-05-08 06:44 -17.14224 7.62217 39030 ft 525 kts 117°
2026-05-08 06:44 -17.17198 7.69191 39031 ft 525 kts 117°
2026-05-08 06:45 -17.20169 7.76166 39031 ft 525 kts 117°
2026-05-08 06:45 -17.23120 7.83101 39031 ft 525 kts 117°
2026-05-08 06:46 -17.26087 7.90083 39033 ft 525 kts 117°
2026-05-08 06:46 -17.29047 7.97057 39031 ft 524 kts 117°
2026-05-08 06:47 -17.31460 8.02746 39028 ft 524 kts 117°
2026-05-08 06:47 -17.34016 8.08779 39031 ft 524 kts 117°
2026-05-08 06:48 -17.36967 8.15752 39033 ft 524 kts 117°
2026-05-08 06:48 -17.39916 8.22727 39026 ft 524 kts 117°
2026-05-08 06:49 -17.42861 8.29701 39029 ft 524 kts 117°
2026-05-08 06:49 -17.45805 8.36681 39028 ft 524 kts 117°
2026-05-08 06:50 -17.48745 8.43661 39031 ft 524 kts 117°
2026-05-08 06:50 -17.51684 8.50644 39031 ft 524 kts 117°
2026-05-08 06:51 -17.54620 8.57631 39031 ft 524 kts 117°
2026-05-08 06:51 -17.57554 8.64618 39032 ft 524 kts 117°
2026-05-08 06:52 -17.60484 8.71605 39030 ft 524 kts 117°
2026-05-08 06:52 -17.63393 8.78551 39030 ft 524 kts 117°
2026-05-08 06:53 -17.66320 8.85546 39034 ft 524 kts 117°
2026-05-08 06:53 -17.69244 8.92545 39030 ft 524 kts 117°
2026-05-08 06:54 -17.72167 8.99548 39031 ft 524 kts 117°
2026-05-08 06:54 -17.75086 9.06549 39033 ft 524 kts 117°
2026-05-08 06:55 -17.78003 9.13553 39028 ft 524 kts 117°
2026-05-08 06:55 -17.80919 9.20565 39033 ft 524 kts 117°
2026-05-08 06:56 -17.83832 9.27577 39030 ft 524 kts 116°
2026-05-08 06:56 -17.86743 9.34593 39039 ft 524 kts 116°
2026-05-08 06:57 -17.89657 9.41622 39028 ft 526 kts 116°
2026-05-08 06:57 -17.92572 9.48665 39030 ft 526 kts 116°
2026-05-08 06:58 -17.95488 9.55718 39030 ft 527 kts 116°
2026-05-08 06:58 -17.98403 9.62776 39032 ft 527 kts 116°
2026-05-08 06:59 -18.01287 9.69791 39027 ft 527 kts 116°
2026-05-08 06:59 -18.04140 9.76946 39029 ft 527 kts 116°
2026-05-08 07:00 -18.06953 9.84065 39038 ft 527 kts 116°
2026-05-08 07:00 -18.09755 9.91135 39033 ft 528 kts 116°
2026-05-08 07:01 -18.12583 9.98258 39034 ft 528 kts 116°
2026-05-08 07:01 -18.15408 10.05375 39031 ft 528 kts 116°
2026-05-08 07:02 -18.18233 10.12502 39036 ft 528 kts 116°
2026-05-08 07:02 -18.21061 10.19644 39031 ft 530 kts 116°
2026-05-08 07:03 -18.23894 10.26812 39031 ft 531 kts 116°
2026-05-08 07:03 -18.26727 10.33988 39030 ft 531 kts 116°
2026-05-08 07:04 -18.29558 10.41169 39027 ft 531 kts 116°
2026-05-08 07:04 -18.32385 10.48349 39029 ft 531 kts 116°
2026-05-08 07:05 -18.35212 10.55537 39030 ft 531 kts 115°
2026-05-08 07:05 -18.38034 10.62723 39027 ft 531 kts 115°